CW3318 Weather Reports


Display with metric or nautical units.
time (UTC)temp
F
wind
direction
speed
MPH
gust
MPH
rain 1hr
in
rain 24hr
in
rain mn
in
humidity
%
barometer
mb
20260904224955 60 171 12.0 19.0 0.00 0.00 0.00 58 1008.3
20260904224856 61 216 12.0 19.0 0.00 0.00 0.00 55 1008.2
20260904224803 61 196 10.0 19.0 0.00 0.00 0.00 55 1008.2
20260904224641 62 150 9.0 19.0 0.00 0.00 0.00 52 1008.1
20260904224608 62 163 11.0 19.0 0.00 0.00 0.00 52 1008.1
20260904224505 63 238 9.0 19.0 0.00 0.00 0.00 50 1008.0
20260904224410 63 244 6.0 13.0 0.00 0.00 0.00 50 1008.0
20260904224251 63 158 6.0 12.0 0.00 0.00 0.00 49 1007.9
20260904224159 63 152 5.0 12.0 0.00 0.00 0.00 49 1007.8
20260904224053 63 129 5.0 10.0 0.00 0.00 0.00 50 1007.8
20260904223959 63 177 7.0 10.0 0.00 0.00 0.00 50 1007.8
20260904223856 63 152 7.0 10.0 0.00 0.00 0.00 50 1007.8
20260904223823 63 128 5.0 10.0 0.00 0.00 0.00 49 1007.8
20260904223700 63 167 3.0 10.0 0.00 0.00 0.00 49 1007.8
20260904223541 63 107 0.0 10.0 0.00 0.00 0.00 48 1007.7
20260904223447 63 107 1.0 10.0 0.00 0.00 0.00 48 1007.7
20260904223344 63 107 3.0 12.0 0.00 0.00 0.00 48 1007.7
20260904223250 63 107 5.0 12.0 0.00 0.00 0.00 48 1007.8
20260904223145 63 113 4.0 12.0 0.00 0.00 0.00 48 1007.8
20260904223050 63 131 3.0 12.0 0.00 0.00 0.00 48 1007.8
20260904222956 63 131 4.0 12.0 0.00 0.00 0.00 49 1007.8
20260904222853 64 181 4.0 12.0 0.00 0.00 0.00 48 1007.8
20260904222755 64 181 6.0 12.0 0.00 0.00 0.00 48 1007.8
20260904222642 64 145 7.0 12.0 0.00 0.00 0.00 48 1007.8
20260904222559 64 149 8.0 12.0 0.00 0.00 0.00 49 1007.8
20260904222505 64 151 7.0 12.0 0.00 0.00 0.00 48 1007.8
20260904222343 64 105 4.0 9.0 0.00 0.00 0.00 48 1007.8
20260904222309 64 110 5.0 9.0 0.00 0.00 0.00 48 1007.8
20260904222152 64 106 6.0 9.0 0.00 0.00 0.00 50 1007.7
20260904222049 64 93 4.0 9.0 0.00 0.00 0.00 49 1007.7
20260904221954 64 129 3.0 10.0 0.00 0.00 0.00 48 1007.7
20260904221850 64 131 4.0 10.0 0.00 0.00 0.00 47 1007.7
20260904221748 64 131 5.0 10.0 0.00 0.00 0.00 48 1007.6
20260904221717 64 115 4.0 10.0 0.00 0.00 0.00 48 1007.8
20260904221621 64 118 5.0 10.0 0.00 0.00 0.00 48 1007.8
20260904221510 64 105 5.0 10.0 0.00 0.00 0.00 47 1007.8
20260904221346 64 75 4.0 14.0 0.00 0.00 0.00 49 1007.7
20260904221304 64 86 5.0 14.0 0.00 0.00 0.00 47 1007.7
20260904221151 64 117 4.0 14.0 0.00 0.00 0.00 47 1007.6
20260904221042 65 143 3.0 14.0 0.00 0.00 0.00 47 1007.7
20260904220947 65 198 3.0 14.0 0.00 0.00 0.00 47 1007.6
20260904220845 65 97 3.0 14.0 0.00 0.00 0.00 47 1007.7
20260904220756 65 102 3.0 14.0 0.00 0.00 0.00 48 1007.6
20260904220653 65 196 4.0 14.0 0.00 0.00 0.00 47 1007.6
20260904220618 65 157 6.0 14.0 0.00 0.00 0.00 47 1007.6
20260904220504 65 121 8.0 14.0 0.00 0.00 0.00 47 1007.6
20260904220359 65 77 6.0 14.0 0.00 0.00 0.00 47 1007.6
20260904220337 65 121 4.0 14.0 0.00 0.00 0.00 47 1007.6
20260904220200 65 111 6.0 14.0 0.00 0.00 0.00 47 1007.6
20260904220044 65 118 5.0 14.0 0.00 0.00 0.00 47 1007.7
20260904220015 65 91 4.0 14.0 0.00 0.00 0.00 47 1007.6
20260904215850 65 123 4.0 14.0 0.00 0.00 0.00 47 1007.7
20260904215747 65 95 6.0 14.0 0.00 0.00 0.00 46 1007.8
20260904215654 65 138 5.0 14.0 0.00 0.00 0.00 46 1007.8
20260904215550 65 142 5.0 14.0 0.00 0.00 0.00 46 1007.8
20260904215457 65 141 5.0 14.0 0.00 0.00 0.00 48 1007.9
20260904215355 65 106 4.0 13.0 0.00 0.00 0.00 48 1007.8
20260904215306 65 139 5.0 13.0 0.00 0.00 0.00 47 1007.8
20260904215145 65 120 5.0 13.0 0.00 0.00 0.00 47 1007.8
20260904215041 65 121 6.0 13.0 0.00 0.00 0.00 49 1007.8
20260904214949 65 169 8.0 13.0 0.00 0.00 0.00 46 1007.9
20260904214844 65 155 8.0 13.0 0.00 0.00 0.00 47 1007.9
20260904214742 65 198 6.0 13.0 0.00 0.00 0.00 46 1007.8
20260904214654 65 115 5.0 11.0 0.00 0.00 0.00 48 1007.8
20260904214559 65 165 6.0 14.0 0.00 0.00 0.00 48 1007.8
20260904214517 65 60 7.0 15.0 0.00 0.00 0.00 49 1007.8
20260904214342 64 127 6.0 15.0 0.00 0.00 0.00 48 1007.8
20260904214259 64 126 4.0 15.0 0.00 0.00 0.00 49 1007.8
20260904214205 64 121 5.0 15.0 0.00 0.00 0.00 50 1007.8
20260904214100 64 86 3.0 15.0 0.00 0.00 0.00 49 1007.7
20260904213942 64 163 3.0 15.0 0.00 0.00 0.00 50 1007.8
20260904213848 64 163 8.0 15.0 0.00 0.00 0.00 48 1007.7
20260904213814 64 121 10.0 15.0 0.00 0.00 0.00 48 1007.7
20260904213710 64 114 7.0 15.0 0.00 0.00 0.00 48 1007.7
20260904213553 64 125 3.0 15.0 0.00 0.00 0.00 49 1007.7
20260904213510 64 133 3.0 15.0 0.00 0.00 0.00 49 1007.7
20260904213354 64 134 4.0 15.0 0.00 0.00 0.00 49 1007.7
20260904213252 64 171 4.0 15.0 0.00 0.00 0.00 49 1007.8
20260904213203 64 132 4.0 15.0 0.00 0.00 0.00 47 1007.8
20260904213058 63 131 6.0 15.0 0.00 0.00 0.00 48 1007.8
20260904213004 63 184 8.0 15.0 0.00 0.00 0.00 48 1007.8
20260904212841 63 175 6.0 15.0 0.00 0.00 0.00 49 1007.8
20260904212759 63 133 5.0 12.0 0.00 0.00 0.00 49 1007.8
20260904212646 63 114 4.0 13.0 0.00 0.00 0.00 48 1007.8
20260904212543 63 120 4.0 13.0 0.00 0.00 0.00 49 1007.8
20260904212449 63 165 7.0 13.0 0.00 0.00 0.00 49 1007.8
20260904212347 63 129 6.0 13.0 0.00 0.00 0.00 49 1007.9
20260904212252 63 86 5.0 13.0 0.00 0.00 0.00 48 1007.8
20260904212150 63 90 6.0 13.0 0.00 0.00 0.00 49 1007.8
20260904212055 63 101 6.0 13.0 0.00 0.00 0.00 49 1007.8
20260904211951 63 111 7.0 13.0 0.00 0.00 0.00 49 1007.8
20260904211852 63 183 8.0 14.0 0.00 0.00 0.00 49 1007.9
20260904211758 63 142 8.0 14.0 0.00 0.00 0.00 49 1007.9
20260904211656 63 142 8.0 14.0 0.00 0.00 0.00 49 1007.9
20260904211600 63 152 6.0 14.0 0.00 0.00 0.00 50 1007.9
20260904211456 63 139 5.0 14.0 0.00 0.00 0.00 50 1007.9
20260904211400 63 218 5.0 14.0 0.00 0.00 0.00 50 1007.9
20260904211241 63 106 7.0 14.0 0.00 0.00 0.00 50 1007.9
20260904211209 63 131 8.0 14.0 0.00 0.00 0.00 50 1007.9
20260904211044 63 92 7.0 14.0 0.00 0.00 0.00 51 1007.8
20260904210942 63 132 5.0 13.0 0.00 0.00 0.00 50 1007.9
20260904210850 63 179 4.0 14.0 0.00 0.00 0.00 50 1007.8
20260904210745 63 136 3.0 14.0 0.00 0.00 0.00 51 1007.8
20260904210648 63 131 5.0 14.0 0.00 0.00 0.00 51 1007.8
20260904210552 62 134 8.0 14.0 0.00 0.00 0.00 51 1007.8
20260904210518 62 133 8.0 15.0 0.00 0.00 0.00 52 1007.8
20260904210355 62 110 7.0 15.0 0.00 0.00 0.00 51 1007.8
20260904210311 62 103 7.0 15.0 0.00 0.00 0.00 51 1007.8
20260904210202 62 59 9.0 15.0 0.00 0.00 0.00 52 1007.8
20260904210057 62 112 9.0 15.0 0.00 0.00 0.00 52 1007.8
20260904210024 62 110 7.0 15.0 0.00 0.00 0.00 52 1007.8
20260904205845 62 125 5.0 15.0 0.00 0.00 0.00 53 1007.8
20260904205743 62 146 6.0 15.0 0.00 0.00 0.00 52 1007.8
20260904205711 61 148 6.0 15.0 0.00 0.00 0.00 52 1007.7
20260904205554 61 125 3.0 13.0 0.00 0.00 0.00 52 1007.8
20260904205452 61 135 5.0 13.0 0.00 0.00 0.00 52 1007.8
20260904205348 61 137 7.0 13.0 0.00 0.00 0.00 52 1007.8
20260904205255 61 139 6.0 12.0 0.00 0.00 0.00 52 1007.8
20260904205158 61 129 6.0 12.0 0.00 0.00 0.00 51 1007.8
20260904205103 61 136 8.0 12.0 0.00 0.00 0.00 52 1007.8
20260904205000 61 142 8.0 14.0 0.00 0.00 0.00 51 1007.8
20260904204906 61 104 8.0 14.0 0.00 0.00 0.00 51 1007.8
20260904204800 61 113 6.0 14.0 0.00 0.00 0.00 50 1007.8
20260904204659 61 144 5.0 14.0 0.00 0.00 0.00 50 1007.8
20260904204548 61 183 7.0 14.0 0.00 0.00 0.00 50 1007.8
20260904204444 62 181 5.0 17.0 0.00 0.00 0.00 51 1007.8
20260904204342 62 132 5.0 19.0 0.00 0.00 0.00 52 1007.9
20260904204249 61 142 7.0 19.0 0.00 0.00 0.00 51 1007.9
20260904204148 61 202 7.0 19.0 0.00 0.00 0.00 51 1007.8
20260904204050 61 194 7.0 19.0 0.00 0.00 0.00 52 1007.8
20260904203947 61 167 9.0 19.0 0.00 0.00 0.00 52 1007.8
20260904203857 61 151 12.0 19.0 0.00 0.00 0.00 52 1007.9
20260904203802 61 160 11.0 19.0 0.00 0.00 0.00 52 1007.9
20260904203700 61 162 12.0 19.0 0.00 0.00 0.00 51 1007.8
20260904203605 61 204 10.0 19.0 0.00 0.00 0.00 52 1007.9
20260904203442 61 96 7.0 15.0 0.00 0.00 0.00 52 1007.8
20260904203409 61 212 6.0 13.0 0.00 0.00 0.00 52 1007.8
20260904203246 61 158 5.0 13.0 0.00 0.00 0.00 53 1007.9
20260904203149 61 179 7.0 13.0 0.00 0.00 0.00 53 1007.9
20260904203114 60 156 8.0 13.0 0.00 0.00 0.00 53 1007.9
20260904202950 60 148 6.0 13.0 0.00 0.00 0.00 53 1007.9
20260904202857 60 157 6.0 12.0 0.00 0.00 0.00 54 1007.9
20260904202755 60 155 8.0 12.0 0.00 0.00 0.00 53 1007.9
20260904202722 60 168 7.0 12.0 0.00 0.00 0.00 54 1007.9
20260904202606 60 167 5.0 11.0 0.00 0.00 0.00 53 1007.9
20260904202442 60 200 5.0 14.0 0.00 0.00 0.00 53 1007.9
20260904202411 60 200 5.0 14.0 0.00 0.00 0.00 52 1007.9
20260904202247 60 184 6.0 14.0 0.00 0.00 0.00 53 1007.9
20260904202154 60 214 5.0 14.0 0.00 0.00 0.00 53 1007.9
20260904202049 60 169 5.0 14.0 0.00 0.00 0.00 53 1007.9
20260904201956 60 169 6.0 14.0 0.00 0.00 0.00 53 1008.0
20260904201852 60 185 4.0 14.0 0.00 0.00 0.00 54 1007.9
20260904201750 60 175 7.0 14.0 0.00 0.00 0.00 54 1008.0
20260904201701 60 152 8.0 14.0 0.00 0.00 0.00 54 1008.0
20260904201556 60 138 5.0 14.0 0.00 0.00 0.00 54 1007.9
20260904201502 59 147 4.0 15.0 0.00 0.00 0.00 54 1008.0
20260904201358 59 133 4.0 15.0 0.00 0.00 0.00 53 1008.0
20260904201302 59 225 4.0 15.0 0.00 0.00 0.00 54 1008.0
20260904201210 59 119 4.0 15.0 0.00 0.00 0.00 54 1008.0
20260904201045 59 173 6.0 15.0 0.00 0.00 0.00 53 1008.0
20260904200947 59 155 10.0 15.0 0.00 0.00 0.00 54 1008.0
20260904200852 59 169 11.0 15.0 0.00 0.00 0.00 53 1008.0
20260904200747 59 154 11.0 15.0 0.00 0.00 0.00 53 1008.1
20260904200647 59 151 10.0 17.0 0.00 0.00 0.00 53 1008.0
20260904200552 59 165 7.0 14.0 0.00 0.00 0.00 53 1008.0
20260904200448 59 139 7.0 14.0 0.00 0.00 0.00 53 1008.1
20260904200352 59 144 7.0 14.0 0.00 0.00 0.00 53 1008.1
20260904200312 59 158 6.0 14.0 0.00 0.00 0.00 53 1008.1
20260904200158 59 178 8.0 14.0 0.00 0.00 0.00 53 1008.1
20260904200000 59 147 6.0 13.0 0.00 0.00 0.00 54 1008.1
20260904195906 59 175 7.0 13.0 0.00 0.00 0.00 54 1008.1
20260904195742 59 236 8.0 13.0 0.00 0.00 0.00 55 1008.1
20260904195646 59 204 7.0 13.0 0.00 0.00 0.00 55 1008.1
20260904195549 59 197 7.0 13.0 0.00 0.00 0.00 55 1008.1
20260904195446 59 192 6.0 14.0 0.00 0.00 0.00 56 1008.2
20260904195353 59 167 6.0 14.0 0.00 0.00 0.00 55 1008.2
20260904195250 59 210 5.0 14.0 0.00 0.00 0.00 56 1008.3
20260904195147 58 177 8.0 14.0 0.00 0.00 0.00 56 1008.2
20260904195112 58 189 9.0 14.0 0.00 0.00 0.00 56 1008.2
20260904194955 58 215 8.0 14.0 0.00 0.00 0.00 56 1008.3
20260904194856 58 189 7.0 14.0 0.00 0.00 0.00 57 1008.2
20260904194800 58 214 8.0 14.0 0.00 0.00 0.00 56 1008.3
20260904194659 58 222 9.0 14.0 0.00 0.00 0.00 56 1008.3
20260904194604 58 218 7.0 16.0 0.00 0.00 0.00 56 1008.3
20260904194501 58 200 6.0 16.0 0.00 0.00 0.00 56 1008.3
20260904194346 58 188 8.0 16.0 0.00 0.00 0.00 56 1008.3
20260904194248 58 191 9.0 16.0 0.00 0.00 0.00 56 1008.3
20260904194156 58 196 7.0 17.0 0.00 0.00 0.00 56 1008.3
20260904194109 58 157 8.0 17.0 0.00 0.00 0.00 56 1008.4
20260904193954 58 198 8.0 17.0 0.00 0.00 0.00 56 1008.4
20260904193851 57 154 8.0 17.0 0.00 0.00 0.00 56 1008.4
20260904193758 57 184 7.0 17.0 0.00 0.00 0.00 56 1008.4
20260904193657 57 156 7.0 15.0 0.00 0.00 0.00 56 1008.4
20260904193556 57 133 10.0 15.0 0.00 0.00 0.00 56 1008.4
20260904193443 57 156 9.0 15.0 0.00 0.00 0.00 57 1008.4
20260904193340 57 187 7.0 15.0 0.00 0.00 0.00 57 1008.4
20260904193307 57 148 5.0 13.0 0.00 0.00 0.00 57 1008.4
20260904193145 57 201 5.0 15.0 0.00 0.00 0.00 57 1008.4
20260904193041 57 181 6.0 15.0 0.00 0.00 0.00 56 1008.4
20260904192948 57 153 8.0 16.0 0.00 0.00 0.00 56 1008.4
20260904192849 57 156 9.0 16.0 0.00 0.00 0.00 56 1008.4
20260904192756 57 163 8.0 16.0 0.00 0.00 0.00 57 1008.3
20260904192655 57 154 7.0 16.0 0.00 0.00 0.00 57 1008.4
20260904192558 57 171 8.0 16.0 0.00 0.00 0.00 56 1008.4
20260904192525 57 166 7.0 16.0 0.00 0.00 0.00 56 1008.4
20260904192341 57 156 8.0 16.0 0.00 0.00 0.00 57 1008.4
20260904192308 57 190 10.0 16.0 0.00 0.00 0.00 57 1008.4
20260904192150 57 223 10.0 16.0 0.00 0.00 0.00 56 1008.4
20260904192045 57 154 9.0 17.0 0.00 0.00 0.00 56 1008.4
20260904192013 57 198 9.0 15.0 0.00 0.00 0.00 57 1008.4
20260904191918 57 139 7.0 15.0 0.00 0.00 0.00 57 1008.4
20260904191753 57 181 7.0 15.0 0.00 0.00 0.00 56 1008.4
20260904191701 58 168 8.0 15.0 0.00 0.00 0.00 55 1008.3
20260904191554 58 142 9.0 18.0 0.00 0.00 0.00 56 1008.3
20260904191505 58 215 8.0 15.0 0.00 0.00 0.00 56 1008.3
20260904191341 58 175 8.0 15.0 0.00 0.00 0.00 56 1008.2
20260904191309 58 152 9.0 15.0 0.00 0.00 0.00 56 1008.2
20260904191147 58 167 10.0 16.0 0.00 0.00 0.00 56 1008.2
20260904191041 58 172 10.0 16.0 0.00 0.00 0.00 56 1008.2
20260904191008 58 162 10.0 16.0 0.00 0.00 0.00 55 1008.2
20260904190905 58 140 9.0 16.0 0.00 0.00 0.00 56 1008.2
20260904190755 58 175 9.0 18.0 0.00 0.00 0.00 55 1008.2
20260904190701 58 151 9.0 18.0 0.00 0.00 0.00 55 1008.2
20260904190616 58 159 9.0 18.0 0.00 0.00 0.00 54 1008.1
20260904190459 59 181 9.0 18.0 0.00 0.00 0.00 54 1008.1
20260904190355 59 172 10.0 18.0 0.00 0.00 0.00 54 1008.1
20260904190311 59 206 9.0 18.0 0.00 0.00 0.00 54 1008.1
20260904190154 59 221 9.0 18.0 0.00 0.00 0.00 53 1008.1
20260904190107 59 212 10.0 18.0 0.00 0.00 0.00 53 1008.1
20260904190002 59 194 9.0 18.0 0.00 0.00 0.00 54 1008.0
20260904185928 60 183 6.0 14.0 0.00 0.00 0.00 55 1008.0
20260904185745 60 212 6.0 14.0 0.00 0.00 0.00 55 1008.0
20260904185643 60 192 7.0 14.0 0.00 0.00 0.00 55 1008.0
20260904185549 60 197 8.0 14.0 0.00 0.00 0.00 54 1008.0
20260904185507 60 227 7.0 14.0 0.00 0.00 0.00 54 1008.0
20260904185356 60 210 6.0 14.0 0.00 0.00 0.00 54 1008.0
20260904185253 60 160 8.0 14.0 0.00 0.00 0.00 55 1008.0
20260904185200 60 182 8.0 15.0 0.00 0.00 0.00 55 1008.0
20260904185127 60 199 5.0 9.0 0.00 0.00 0.00 54 1008.0
20260904185000 60 154 3.0 7.0 0.00 0.00 0.00 55 1008.0
20260904184906 60 235 2.0 6.0 0.00 0.00 0.00 54 1008.0
20260904184742 60 235 0.0 6.0 0.00 0.00 0.00 54 1008.0
20260904184645 60 235 0.0 6.0 0.00 0.00 0.00 54 1008.0
20260904184549 60 235 1.0 7.0 0.00 0.00 0.00 55 1008.0
20260904184507 60 235 2.0 7.0 0.00 0.00 0.00 55 1008.0
20260904184413 60 235 3.0 10.0 0.00 0.00 0.00 55 1008.0
20260904184316 60 236 4.0 10.0 0.00 0.00 0.00 55 1008.0
20260904184202 59 235 4.0 10.0 0.00 0.00 0.00 56 1008.0
20260904184117 59 197 3.0 10.0 0.00 0.00 0.00 56 1008.0
20260904184003 59 194 3.0 10.0 0.00 0.00 0.00 55 1008.0
20260904183845 59 194 4.0 10.0 0.00 0.00 0.00 56 1008.0
20260904183812 59 192 4.0 10.0 0.00 0.00 0.00 55 1008.0
20260904183651 59 161 4.0 10.0 0.00 0.00 0.00 55 1008.0
20260904183556 59 161 4.0 10.0 0.00 0.00 0.00 55 1008.1
20260904183453 59 200 3.0 6.0 0.00 0.00 0.00 55 1008.1
20260904183349 59 201 3.0 6.0 0.00 0.00 0.00 55 1008.0
20260904183257 59 202 2.0 6.0 0.00 0.00 0.00 55 1008.0
20260904183158 59 202 2.0 6.0 0.00 0.00 0.00 56 1008.0
20260904183103 59 206 1.0 6.0 0.00 0.00 0.00 56 1008.0
20260904183021 59 206 1.0 6.0 0.00 0.00 0.00 57 1008.1
20260904182847 59 206 2.0 6.0 0.00 0.00 0.00 56 1008.0
20260904182742 59 206 3.0 6.0 0.00 0.00 0.00 56 1008.0
20260904182711 59 206 3.0 6.0 0.00 0.00 0.00 56 1008.0
20260904182545 59 206 3.0 6.0 0.00 0.00 0.00 56 1008.0
20260904182447 59 206 2.0 6.0 0.00 0.00 0.00 55 1008.0
20260904182354 59 206 1.0 4.0 0.00 0.00 0.00 55 1008.0
20260904182252 59 206 1.0 4.0 0.00 0.00 0.00 54 1008.0
20260904182159 59 206 1.0 4.0 0.00 0.00 0.00 54 1008.0
20260904182052 59 206 1.0 7.0 0.00 0.00 0.00 55 1008.0
20260904181958 59 206 2.0 7.0 0.00 0.00 0.00 55 1008.0
20260904181855 59 206 2.0 7.0 0.00 0.00 0.00 55 1007.9
20260904181806 59 206 1.0 7.0 0.00 0.00 0.00 55 1007.9
20260904181643 59 206 1.0 7.0 0.00 0.00 0.00 56 1008.0
20260904181600 59 206 1.0 7.0 0.00 0.00 0.00 56 1007.9
20260904181446 59 206 2.0 7.0 0.00 0.00 0.00 56 1007.9
20260904181341 58 206 4.0 7.0 0.00 0.00 0.00 57 1007.9
20260904181309 58 206 4.0 7.0 0.00 0.00 0.00 58 1007.9
20260904181212 58 212 4.0 7.0 0.00 0.00 0.00 59 1008.0
20260904181055 58 212 4.0 7.0 0.00 0.00 0.00 59 1008.0
20260904180953 58 212 4.0 7.0 0.00 0.00 0.00 59 1008.0
20260904180920 58 212 4.0 7.0 0.00 0.00 0.00 59 1008.0
20260904180755 58 212 4.0 7.0 0.00 0.00 0.00 60 1008.0
20260904180701 57 212 2.0 6.0 0.00 0.00 0.00 59 1008.0
20260904180557 57 212 1.0 6.0 0.00 0.00 0.00 59 1008.0
20260904180508 57 212 2.0 6.0 0.00 0.00 0.00 59 1008.0
20260904180344 57 212 3.0 6.0 0.00 0.00 0.00 59 1008.0
20260904180320 57 212 3.0 6.0 0.00 0.00 0.00 60 1008.0
20260904180234 57 212 2.0 6.0 0.00 0.00 0.00 61 1008.0
20260904180045 57 214 1.0 4.0 0.00 0.00 0.00 60 1008.0
20260904175942 57 214 2.0 4.0 0.00 0.00 0.00 60 1008.0
20260904175847 57 214 2.0 4.0 0.00 0.00 0.00 61 1008.0
20260904175814 57 214 2.0 5.0 0.00 0.00 0.00 61 1008.0
20260904175654 57 215 2.0 5.0 0.00 0.00 0.00 62 1008.0
20260904175559 57 215 1.0 5.0 0.00 0.00 0.00 62 1008.0
20260904175457 57 215 1.0 5.0 0.00 0.00 0.00 62 1008.0
20260904175403 57 215 1.0 5.0 0.00 0.00 0.00 63 1008.0
20260904175259 56 215 1.0 5.0 0.00 0.00 0.00 63 1008.0
20260904175206 56 215 2.0 5.0 0.00 0.00 0.00 63 1008.0
20260904175101 56 215 3.0 5.0 0.00 0.00 0.00 63 1008.0
20260904175000 56 215 3.0 5.0 0.00 0.00 0.00 63 1007.9
20260904174846 56 215 3.0 5.0 0.00 0.00 0.00 64 1007.9
20260904174743 56 215 2.0 5.0 0.00 0.00 0.00 64 1007.9
20260904174712 56 215 2.0 5.0 0.00 0.00 0.00 64 1007.9
20260904174546 56 215 2.0 5.0 0.00 0.00 0.00 64 1007.9
20260904174453 56 215 3.0 5.0 0.00 0.00 0.00 64 1007.9
20260904174352 55 215 2.0 5.0 0.00 0.00 0.00 64 1007.9
20260904174302 55 215 1.0 4.0 0.00 0.00 0.00 63 1007.9
20260904174200 55 215 0.0 5.0 0.00 0.00 0.00 63 1007.9
20260904174056 55 215 1.0 5.0 0.00 0.00 0.00 63 1007.8
20260904174003 55 215 2.0 5.0 0.00 0.00 0.00 63 1007.9
20260904173859 55 215 3.0 5.0 0.00 0.00 0.00 63 1007.9
20260904173806 55 215 3.0 5.0 0.00 0.00 0.00 64 1007.9
20260904173648 55 215 2.0 5.0 0.00 0.00 0.00 63 1007.9
20260904173611 55 215 3.0 5.0 0.00 0.00 0.00 64 1007.9
20260904173445 55 215 3.0 5.0 0.00 0.00 0.00 64 1007.9
20260904173352 55 215 4.0 5.0 0.00 0.00 0.00 65 1007.9
20260904173248 55 214 3.0 5.0 0.00 0.00 0.00 64 1007.9
20260904173216 55 214 2.0 5.0 0.00 0.00 0.00 64 1007.9
20260904173051 55 214 3.0 5.0 0.00 0.00 0.00 65 1007.9
20260904173016 55 214 3.0 6.0 0.00 0.00 0.00 66 1007.9
20260904172903 55 214 2.0 6.0 0.00 0.00 0.00 67 1007.9
20260904172758 55 214 2.0 6.0 0.00 0.00 0.00 66 1007.9
20260904172656 55 214 3.0 6.0 0.00 0.00 0.00 66 1007.9
20260904172541 54 214 3.0 6.0 0.00 0.00 0.00 68 1007.9
20260904172458 54 214 3.0 6.0 0.00 0.00 0.00 67 1007.9
20260904172404 54 214 3.0 6.0 0.00 0.00 0.00 67 1007.9
20260904172245 54 214 4.0 6.0 0.00 0.00 0.00 67 1008.0
20260904172213 54 214 4.0 6.0 0.00 0.00 0.00 67 1008.0
20260904172048 54 212 4.0 6.0 0.00 0.00 0.00 67 1007.9
20260904172014 54 212 4.0 6.0 0.00 0.00 0.00 67 1007.9
20260904171857 54 212 5.0 6.0 0.00 0.00 0.00 67 1007.9
20260904171809 54 212 4.0 6.0 0.00 0.00 0.00 67 1007.9
20260904171656 54 210 3.0 6.0 0.00 0.00 0.00 67 1007.9
20260904171559 54 207 3.0 6.0 0.00 0.00 0.00 68 1007.9
20260904171455 54 207 4.0 6.0 0.00 0.00 0.00 68 1007.9
20260904171406 53 207 4.0 6.0 0.00 0.00 0.00 68 1007.9
20260904171243 53 206 2.0 5.0 0.00 0.00 0.00 68 1008.0
20260904171142 53 206 2.0 5.0 0.00 0.00 0.00 68 1007.9
20260904171046 53 206 3.0 5.0 0.00 0.00 0.00 68 1008.0
20260904170944 53 206 2.0 5.0 0.00 0.00 0.00 68 1008.0
20260904170842 53 206 3.0 7.0 0.00 0.00 0.00 69 1007.9
20260904170753 53 206 3.0 7.0 0.00 0.00 0.00 69 1008.0
20260904170650 53 206 3.0 7.0 0.00 0.00 0.00 69 1007.9
20260904170556 53 206 2.0 7.0 0.00 0.00 0.00 69 1007.9
20260904170453 53 206 2.0 7.0 0.00 0.00 0.00 69 1007.9
20260904170415 53 206 2.0 7.0 0.00 0.00 0.00 68 1007.9
20260904170309 53 206 2.0 7.0 0.00 0.00 0.00 68 1007.9
20260904170153 53 206 3.0 7.0 0.00 0.00 0.00 69 1007.9
20260904170059 53 206 4.0 7.0 0.00 0.00 0.00 69 1007.9
20260904170019 53 206 4.0 7.0 0.00 0.00 0.00 69 1007.9
20260904165843 53 206 4.0 6.0 0.00 0.00 0.00 69 1007.9
20260904165800 53 205 3.0 6.0 0.00 0.00 0.00 69 1007.9
20260904165707 52 205 3.0 6.0 0.00 0.00 0.00 69 1007.9
20260904165540 52 205 4.0 6.0 0.00 0.00 0.00 69 1007.9
20260904165505 52 205 4.0 7.0 0.00 0.00 0.00 69 1007.9
20260904165345 52 205 4.0 7.0 0.00 0.00 0.00 69 1007.8
20260904165242 52 205 4.0 7.0 0.00 0.00 0.00 70 1007.8
20260904165149 52 205 4.0 7.0 0.00 0.00 0.00 70 1007.8
20260904165106 52 204 3.0 7.0 0.00 0.00 0.00 70 1007.7
20260904164952 52 204 4.0 7.0 0.00 0.00 0.00 70 1007.8
20260904164850 52 204 4.0 7.0 0.00 0.00 0.00 70 1007.8
20260904164755 52 204 4.0 7.0 0.00 0.00 0.00 70 1007.6
20260904164715 52 202 3.0 7.0 0.00 0.00 0.00 69 1007.7
20260904164541 52 194 2.0 4.0 0.00 0.00 0.00 70 1007.6
20260904164459 52 194 2.0 4.0 0.00 0.00 0.00 70 1007.6
20260904164406 52 194 3.0 4.0 0.00 0.00 0.00 70 1007.6
20260904164242 52 194 2.0 4.0 0.00 0.00 0.00 70 1007.6
20260904164142 52 194 2.0 4.0 0.00 0.00 0.00 70 1007.6
20260904164047 52 194 2.0 4.0 0.00 0.00 0.00 70 1007.6
20260904163949 52 194 3.0 4.0 0.00 0.00 0.00 70 1007.6
20260904163856 52 194 3.0 4.0 0.00 0.00 0.00 70 1007.6
20260904163753 51 194 3.0 4.0 0.00 0.00 0.00 70 1007.6
20260904163717 51 194 3.0 4.0 0.00 0.00 0.00 70 1007.5
20260904163551 51 194 3.0 4.0 0.00 0.00 0.00 70 1007.5
20260904163458 51 194 2.0 4.0 0.00 0.00 0.00 70 1007.6
20260904163416 51 194 0.0 4.0 0.00 0.00 0.00 70 1007.6
20260904163305 51 194 0.0 4.0 0.00 0.00 0.00 70 1007.6
20260904163141 51 194 2.0 4.0 0.00 0.00 0.00 70 1007.5
20260904163109 51 194 2.0 4.0 0.00 0.00 0.00 70 1007.5
20260904163005 51 194 1.0 4.0 0.00 0.00 0.00 70 1007.6
20260904162909 51 194 2.0 4.0 0.00 0.00 0.00 70 1007.6
20260904162807 51 194 3.0 4.0 0.00 0.00 0.00 70 1007.6
20260904162654 51 194 3.0 4.0 0.00 0.00 0.00 71 1007.5
20260904162554 51 194 2.0 4.0 0.00 0.00 0.00 71 1007.5
20260904162501 51 194 2.0 4.0 0.00 0.00 0.00 70 1007.5
20260904162419 51 194 1.0 4.0 0.00 0.00 0.00 70 1007.6
20260904162306 51 194 0.0 4.0 0.00 0.00 0.00 70 1007.6
20260904162141 51 194 0.0 4.0 0.00 0.00 0.00 71 1007.6
20260904162109 51 194 1.0 4.0 0.00 0.00 0.00 71 1007.6
20260904161945 51 194 2.0 4.0 0.00 0.00 0.00 71 1007.6
20260904161916 51 194 2.0 4.0 0.00 0.00 0.00 72 1007.6
20260904161753 51 194 2.0 4.0 0.00 0.00 0.00 72 1007.6
20260904161720 51 194 3.0 4.0 0.00 0.00 0.00 71 1007.6
20260904161628 51 194 2.0 5.0 0.00 0.00 0.00 71 1007.6
20260904161500 51 194 2.0 5.0 0.00 0.00 0.00 71 1007.5
20260904161358 51 194 2.0 5.0 0.00 0.00 0.00 71 1007.5
20260904161305 51 194 1.0 5.0 0.00 0.00 0.00 71 1007.5
20260904161146 51 194 1.0 5.0 0.00 0.00 0.00 72 1007.5
20260904161041 51 194 2.0 5.0 0.00 0.00 0.00 73 1007.6
20260904160947 51 194 3.0 5.0 0.00 0.00 0.00 72 1007.5
20260904160853 51 194 3.0 5.0 0.00 0.00 0.00 72 1007.5
20260904160750 50 194 3.0 5.0 0.00 0.00 0.00 73 1007.6
20260904160649 50 194 3.0 5.0 0.00 0.00 0.00 73 1007.6
20260904160553 50 194 2.0 5.0 0.00 0.00 0.00 73 1007.6
20260904160455 50 194 2.0 5.0 0.00 0.00 0.00 73 1007.6
20260904160400 50 194 1.0 5.0 0.00 0.00 0.00 73 1007.6
20260904160307 50 194 2.0 5.0 0.00 0.00 0.00 73 1007.6
20260904160221 50 194 3.0 5.0 0.00 0.00 0.00 73 1007.6
20260904160055 50 194 3.0 5.0 0.00 0.00 0.00 73 1007.6
20260904160001 50 194 4.0 5.0 0.00 0.00 0.00 74 1007.6
20260904155859 50 194 4.0 5.0 0.00 0.00 0.00 74 1007.6
20260904155808 50 194 3.0 5.0 0.00 0.00 0.00 74 1007.6
20260904155654 50 194 2.0 5.0 0.00 0.00 0.00 74 1007.6
20260904155550 50 194 3.0 5.0 0.00 0.00 0.00 74 1007.6
20260904155447 50 194 3.0 6.0 0.00 0.00 0.00 74 1007.6
20260904155353 49 194 3.0 6.0 0.00 0.00 0.00 74 1007.6
20260904155250 49 194 3.0 6.0 0.00 0.00 0.00 74 1007.6
20260904155157 49 194 3.0 6.0 0.00 0.00 0.00 74 1007.6
20260904155057 49 194 3.0 6.0 0.00 0.00 0.00 74 1007.5
20260904155004 49 194 3.0 6.0 0.00 0.00 0.00 74 1007.6
20260904154857 49 194 2.0 6.0 0.00 0.00 0.00 75 1007.6
20260904154802 49 194 3.0 6.0 0.00 0.00 0.00 75 1007.6
20260904154710 49 194 3.0 6.0 0.00 0.00 0.00 75 1007.6
20260904154545 49 194 4.0 6.0 0.00 0.00 0.00 75 1007.5
20260904154442 49 193 3.0 5.0 0.00 0.00 0.00 75 1007.5
20260904154353 49 193 3.0 5.0 0.00 0.00 0.00 75 1007.5
20260904154251 49 193 2.0 5.0 0.00 0.00 0.00 75 1007.6
20260904154149 49 193 2.0 5.0 0.00 0.00 0.00 75 1007.6
20260904154053 49 193 2.0 5.0 0.00 0.00 0.00 74 1007.5
20260904153958 49 193 3.0 5.0 0.00 0.00 0.00 74 1007.6
20260904153856 49 193 2.0 5.0 0.00 0.00 0.00 74 1007.6
20260904153742 48 194 3.0 5.0 0.00 0.00 0.00 74 1007.6
20260904153642 48 194 3.0 5.0 0.00 0.00 0.00 74 1007.6
20260904153608 48 194 3.0 5.0 0.00 0.00 0.00 74 1007.6
20260904153443 48 198 2.0 5.0 0.00 0.00 0.00 75 1007.5
20260904153409 48 198 3.0 5.0 0.00 0.00 0.00 75 1007.6
20260904153246 48 198 3.0 5.0 0.00 0.00 0.00 75 1007.5
20260904153144 48 198 3.0 6.0 0.00 0.00 0.00 75 1007.6
20260904153049 48 199 3.0 6.0 0.00 0.00 0.00 75 1007.6
20260904152951 48 199 3.0 6.0 0.00 0.00 0.00 75 1007.6
20260904152918 48 199 3.0 6.0 0.00 0.00 0.00 75 1007.6
20260904152802 48 199 3.0 6.0 0.00 0.00 0.00 75 1007.6
20260904152658 48 199 3.0 6.0 0.00 0.00 0.00 75 1007.6
20260904152603 48 199 3.0 6.0 0.00 0.00 0.00 74 1007.6
20260904152500 48 200 4.0 6.0 0.00 0.00 0.00 75 1007.6
20260904152426 48 200 4.0 6.0 0.00 0.00 0.00 74 1007.6
20260904152243 48 200 3.0 6.0 0.00 0.00 0.00 74 1007.6
20260904152152 47 200 3.0 6.0 0.00 0.00 0.00 75 1007.6
20260904152048 47 200 3.0 6.0 0.00 0.00 0.00 75 1007.6
20260904151945 47 200 3.0 7.0 0.00 0.00 0.00 75 1007.6
20260904151851 47 200 3.0 7.0 0.00 0.00 0.00 75 1007.5
20260904151748 47 199 2.0 7.0 0.00 0.00 0.00 75 1007.5
20260904151656 47 199 2.0 7.0 0.00 0.00 0.00 76 1007.5
20260904151552 47 199 3.0 7.0 0.00 0.00 0.00 76 1007.5
20260904151523 47 199 3.0 7.0 0.00 0.00 0.00 75 1007.5
20260904151406 47 199 3.0 8.0 0.00 0.00 0.00 75 1007.5
20260904151243 47 199 4.0 8.0 0.00 0.00 0.00 75 1007.5
20260904151143 47 199 5.0 8.0 0.00 0.00 0.00 75 1007.4
20260904151046 47 200 4.0 8.0 0.00 0.00 0.00 75 1007.4
20260904150944 47 200 4.0 8.0 0.00 0.00 0.00 76 1007.4
20260904150910 47 200 3.0 8.0 0.00 0.00 0.00 76 1007.4
20260904150749 47 199 3.0 8.0 0.00 0.00 0.00 76 1007.4
20260904150658 47 199 5.0 8.0 0.00 0.00 0.00 76 1007.4
20260904150622 47 199 5.0 8.0 0.00 0.00 0.00 76 1007.4
20260904150457 47 187 5.0 9.0 0.00 0.00 0.00 76 1007.4
20260904150424 47 182 4.0 9.0 0.00 0.00 0.00 76 1007.4
20260904150311 47 181 3.0 9.0 0.00 0.00 0.00 76 1007.4
20260904150205 47 181 4.0 9.0 0.00 0.00 0.00 76 1007.3
20260904150059 47 181 4.0 9.0 0.00 0.00 0.00 76 1007.2
20260904145950 47 178 4.0 9.0 0.00 0.00 0.00 76 1007.2
20260904145848 46 178 4.0 9.0 0.00 0.00 0.00 76 1007.2
20260904145745 46 181 3.0 9.0 0.00 0.00 0.00 76 1007.2
20260904145653 46 146 3.0 9.0 0.00 0.00 0.00 77 1007.1
20260904145549 46 146 4.0 9.0 0.00 0.00 0.00 77 1007.1
20260904145455 46 145 4.0 9.0 0.00 0.00 0.00 77 1007.1
20260904145401 46 145 5.0 10.0 0.00 0.00 0.00 77 1007.1
20260904145241 46 144 4.0 10.0 0.00 0.00 0.00 77 1007.0
20260904145159 46 144 3.0 10.0 0.00 0.00 0.00 77 1007.1
20260904145106 46 144 3.0 10.0 0.00 0.00 0.00 78 1007.1
20260904144942 46 141 3.0 10.0 0.00 0.00 0.00 78 1007.0
20260904144840 46 141 2.0 10.0 0.00 0.00 0.00 78 1007.0
20260904144747 46 141 3.0 10.0 0.00 0.00 0.00 78 1007.0
20260904144649 46 140 4.0 10.0 0.00 0.00 0.00 78 1007.0
20260904144554 46 140 4.0 10.0 0.00 0.00 0.00 78 1007.0
20260904144451 46 131 3.0 8.0 0.00 0.00 0.00 78 1006.9
20260904144358 46 131 4.0 8.0 0.00 0.00 0.00 78 1007.0
20260904144255 45 131 3.0 8.0 0.00 0.00 0.00 78 1006.9
20260904144154 45 132 3.0 7.0 0.00 0.00 0.00 78 1006.9
20260904144043 45 132 3.0 8.0 0.00 0.00 0.00 79 1006.9
20260904143959 45 133 3.0 8.0 0.00 0.00 0.00 79 1006.9
20260904143904 45 131 3.0 8.0 0.00 0.00 0.00 79 1006.9
20260904143740 45 131 4.0 8.0 0.00 0.00 0.00 79 1006.9
20260904143708 45 131 4.0 8.0 0.00 0.00 0.00 79 1006.8
20260904143543 45 131 4.0 8.0 0.00 0.00 0.00 79 1006.9
20260904143510 45 132 4.0 8.0 0.00 0.00 0.00 79 1006.9
20260904143347 45 132 4.0 8.0 0.00 0.00 0.00 79 1006.9
20260904143252 45 132 3.0 8.0 0.00 0.00 0.00 79 1006.9
20260904143151 45 132 3.0 8.0 0.00 0.00 0.00 79 1006.8
20260904143047 45 132 4.0 8.0 0.00 0.00 0.00 78 1006.9
20260904142953 45 133 4.0 8.0 0.00 0.00 0.00 78 1006.9
20260904142919 45 133 4.0 6.0 0.00 0.00 0.00 78 1006.9
20260904142756 45 133 3.0 6.0 0.00 0.00 0.00 78 1006.9
20260904142725 45 133 3.0 6.0 0.00 0.00 0.00 78 1006.9
20260904142543 45 133 3.0 6.0 0.00 0.00 0.00 78 1006.8
20260904142440 45 133 2.0 6.0 0.00 0.00 0.00 78 1006.9
20260904142346 45 133 3.0 6.0 0.00 0.00 0.00 78 1006.9
20260904142244 45 133 2.0 7.0 0.00 0.00 0.00 78 1006.9
20260904142151 45 133 2.0 7.0 0.00 0.00 0.00 78 1006.9
20260904142045 45 133 2.0 7.0 0.00 0.00 0.00 78 1006.9
20260904141946 45 133 3.0 7.0 0.00 0.00 0.00 78 1006.9
20260904141852 45 133 3.0 7.0 0.00 0.00 0.00 78 1006.9
20260904141749 45 133 3.0 7.0 0.00 0.00 0.00 78 1006.9
20260904141655 45 133 3.0 7.0 0.00 0.00 0.00 78 1006.8
20260904141551 45 133 3.0 7.0 0.00 0.00 0.00 78 1006.9
20260904141458 45 133 3.0 7.0 0.00 0.00 0.00 78 1006.8
20260904141400 45 133 3.0 7.0 0.00 0.00 0.00 78 1006.8
20260904141326 45 133 3.0 7.0 0.00 0.00 0.00 78 1006.8
20260904141142 45 133 4.0 7.0 0.00 0.00 0.00 77 1006.8
20260904141110 45 133 4.0 7.0 0.00 0.00 0.00 77 1006.8
20260904140946 45 133 4.0 7.0 0.00 0.00 0.00 77 1006.8
20260904140842 45 133 4.0 7.0 0.00 0.00 0.00 77 1006.8
20260904140749 45 133 4.0 7.0 0.00 0.00 0.00 77 1006.7
20260904140652 45 133 4.0 7.0 0.00 0.00 0.00 77 1006.7
20260904140548 45 133 3.0 7.0 0.00 0.00 0.00 77 1006.7
20260904140514 45 134 3.0 8.0 0.00 0.00 0.00 77 1006.7
20260904140419 45 134 4.0 8.0 0.00 0.00 0.00 77 1006.6
20260904140315 45 134 4.0 8.0 0.00 0.00 0.00 77 1006.6
20260904140152 45 134 3.0 8.0 0.00 0.00 0.00 77 1006.6
20260904140057 45 134 3.0 8.0 0.00 0.00 0.00 77 1006.6
20260904140001 45 134 3.0 8.0 0.00 0.00 0.00 77 1006.6
20260904135842 45 134 3.0 8.0 0.00 0.00 0.00 77 1006.5
20260904135759 45 134 4.0 8.0 0.00 0.00 0.00 77 1006.5
20260904135646 45 138 4.0 8.0 0.00 0.00 0.00 77 1006.5
20260904135543 45 145 3.0 7.0 0.00 0.00 0.00 77 1006.5
20260904135440 45 146 4.0 7.0 0.00 0.00 0.00 77 1006.5
20260904135346 45 146 3.0 7.0 0.00 0.00 0.00 77 1006.5
20260904135246 45 149 2.0 5.0 0.00 0.00 0.00 77 1006.5
20260904135154 45 149 2.0 4.0 0.00 0.00 0.00 77 1006.5
20260904135059 45 149 2.0 4.0 0.00 0.00 0.00 77 1006.5
20260904135015 45 149 2.0 4.0 0.00 0.00 0.00 77 1006.5
20260904134901 45 149 1.0 4.0 0.00 0.00 0.00 77 1006.5
20260904134758 45 149 1.0 4.0 0.00 0.00 0.00 77 1006.6
20260904134705 45 149 1.0 4.0 0.00 0.00 0.00 77 1006.6
20260904134544 45 149 2.0 4.0 0.00 0.00 0.00 77 1006.5
20260904134440 45 149 3.0 4.0 0.00 0.00 0.00 77 1006.5
20260904134407 45 149 3.0 4.0 0.00 0.00 0.00 77 1006.5
20260904134244 45 149 2.0 3.0 0.00 0.00 0.00 77 1006.4
20260904134152 45 149 2.0 3.0 0.00 0.00 0.00 77 1006.4
20260904134055 45 149 2.0 3.0 0.00 0.00 0.00 77 1006.4
20260904133953 45 149 1.0 3.0 0.00 0.00 0.00 77 1006.4
20260904133849 45 149 0.0 2.0 0.00 0.00 0.00 77 1006.3
20260904133759 45 149 1.0 2.0 0.00 0.00 0.00 77 1006.3
20260904133706 45 149 1.0 2.0 0.00 0.00 0.00 77 1006.3
20260904133602 45 149 1.0 2.0 0.00 0.00 0.00 77 1006.2
20260904133529 45 149 2.0 2.0 0.00 0.00 0.00 77 1006.2
20260904133345 45 149 2.0 2.0 0.00 0.00 0.00 76 1006.2
20260904133242 45 149 1.0 3.0 0.00 0.00 0.00 76 1006.2
20260904133149 45 149 1.0 3.0 0.00 0.00 0.00 76 1006.2
20260904133049 45 149 0.0 3.0 0.00 0.00 0.00 76 1006.2
20260904132954 45 149 1.0 3.0 0.00 0.00 0.00 76 1006.2
20260904132852 45 149 1.0 3.0 0.00 0.00 0.00 76 1006.2
20260904132759 45 149 1.0 3.0 0.00 0.00 0.00 76 1006.2
20260904132658 45 149 1.0 3.0 0.00 0.00 0.00 76 1006.2
20260904132603 45 149 1.0 3.0 0.00 0.00 0.00 77 1006.3
20260904132459 45 149 1.0 3.0 0.00 0.00 0.00 77 1006.2
20260904132350 45 149 2.0 3.0 0.00 0.00 0.00 76 1006.2
20260904132247 45 149 2.0 3.0 0.00 0.00 0.00 76 1006.3
20260904132144 45 149 2.0 4.0 0.00 0.00 0.00 76 1006.2
20260904132050 45 149 2.0 4.0 0.00 0.00 0.00 76 1006.3
20260904131946 45 149 2.0 4.0 0.00 0.00 0.00 76 1006.2
20260904131853 45 149 2.0 4.0 0.00 0.00 0.00 76 1006.2
20260904131754 45 149 2.0 4.0 0.00 0.00 0.00 77 1006.2
20260904131701 45 149 2.0 4.0 0.00 0.00 0.00 77 1006.2
20260904131557 45 149 2.0 4.0 0.00 0.00 0.00 77 1006.2
20260904131504 45 149 3.0 4.0 0.00 0.00 0.00 77 1006.2
20260904131342 45 149 3.0 4.0 0.00 0.00 0.00 77 1006.3
20260904131240 45 149 2.0 4.0 0.00 0.00 0.00 77 1006.3
20260904131149 45 149 2.0 4.0 0.00 0.00 0.00 77 1006.3
20260904131049 45 149 2.0 4.0 0.00 0.00 0.00 77 1006.3
20260904131016 45 149 2.0 4.0 0.00 0.00 0.00 77 1006.2
20260904130851 45 149 2.0 4.0 0.00 0.00 0.00 77 1006.3
20260904130758 45 149 2.0 3.0 0.00 0.00 0.00 77 1006.3
20260904130657 45 149 2.0 3.0 0.00 0.00 0.00 77 1006.3
20260904130600 45 149 2.0 3.0 0.00 0.00 0.00 77 1006.4
20260904130455 45 149 2.0 3.0 0.00 0.00 0.00 77 1006.2
20260904130357 45 149 2.0 3.0 0.00 0.00 0.00 77 1006.3
20260904130313 45 149 2.0 3.0 0.00 0.00 0.00 77 1006.3
20260904130208 46 149 1.0 3.0 0.00 0.00 0.00 77 1006.2
20260904130043 46 149 1.0 3.0 0.00 0.00 0.00 77 1006.2
20260904125940 46 149 1.0 3.0 0.00 0.00 0.00 77 1006.2
20260904125906 46 149 1.0 3.0 0.00 0.00 0.00 77 1006.2
20260904125746 46 149 2.0 3.0 0.00 0.00 0.00 77 1006.2
20260904125646 46 149 2.0 3.0 0.00 0.00 0.00 77 1006.2
20260904125551 46 149 2.0 3.0 0.00 0.00 0.00 77 1006.2
20260904125456 46 149 1.0 3.0 0.00 0.00 0.00 77 1006.2
20260904125352 46 149 1.0 3.0 0.00 0.00 0.00 77 1006.2
20260904125250 46 149 1.0 3.0 0.00 0.00 0.00 77 1006.2
20260904125217 46 149 1.0 3.0 0.00 0.00 0.00 77 1006.2
20260904125108 46 149 1.0 3.0 0.00 0.00 0.00 77 1006.2
20260904125003 46 149 0.0 3.0 0.00 0.00 0.00 77 1006.1
20260904124848 46 149 0.0 3.0 0.00 0.00 0.00 77 1006.0
20260904124745 46 149 1.0 3.0 0.00 0.00 0.00 77 1006.0
20260904124642 46 149 1.0 4.0 0.00 0.00 0.00 77 1006.1
20260904124547 46 149 2.0 4.0 0.00 0.00 0.00 77 1006.1
20260904124444 46 149 2.0 4.0 0.00 0.00 0.00 77 1006.1
20260904124414 46 149 2.0 4.0 0.00 0.00 0.00 77 1006.1
20260904124251 46 149 1.0 4.0 0.00 0.00 0.00 77 1006.1
20260904124218 46 149 1.0 4.0 0.00 0.00 0.00 77 1006.1
20260904124101 46 149 1.0 4.0 0.00 0.00 0.00 77 1006.1
20260904123958 46 149 2.0 4.0 0.00 0.00 0.00 77 1006.1
20260904123905 46 149 2.0 4.0 0.00 0.00 0.00 77 1006.1
20260904123741 46 149 2.0 4.0 0.00 0.00 0.00 77 1006.1
20260904123705 46 149 2.0 4.0 0.00 0.00 0.00 77 1006.1
20260904123549 46 149 2.0 4.0 0.00 0.00 0.00 77 1006.1
20260904123446 46 149 1.0 4.0 0.00 0.00 0.00 77 1006.1
20260904123353 46 149 2.0 4.0 0.00 0.00 0.00 77 1006.1
20260904123251 46 149 2.0 4.0 0.00 0.00 0.00 77 1006.1
20260904123217 46 149 2.0 4.0 0.00 0.00 0.00 77 1006.1
20260904123053 46 149 3.0 4.0 0.00 0.00 0.00 77 1006.1
20260904123002 46 149 2.0 5.0 0.00 0.00 0.00 77 1006.1
20260904122858 46 149 2.0 5.0 0.00 0.00 0.00 77 1006.0
20260904122805 46 149 2.0 5.0 0.00 0.00 0.00 77 1006.0
20260904122644 46 149 2.0 5.0 0.00 0.00 0.00 77 1006.0
20260904122540 46 149 2.0 5.0 0.00 0.00 0.00 77 1006.0
20260904122507 46 148 2.0 5.0 0.00 0.00 0.00 77 1006.0
20260904122349 46 148 1.0 5.0 0.00 0.00 0.00 77 1006.0
20260904122247 46 148 2.0 5.0 0.00 0.00 0.00 78 1006.0
20260904122155 46 148 3.0 5.0 0.00 0.00 0.00 78 1006.0
20260904122049 46 148 3.0 5.0 0.00 0.00 0.00 77 1006.1
20260904121955 46 148 3.0 5.0 0.00 0.00 0.00 78 1006.0
20260904121849 46 148 3.0 5.0 0.00 0.00 0.00 78 1006.0
20260904121755 46 148 3.0 5.0 0.00 0.00 0.00 78 1006.0
20260904121658 46 148 3.0 5.0 0.00 0.00 0.00 78 1006.1
20260904121601 46 148 4.0 5.0 0.00 0.00 0.00 78 1006.1
20260904121459 46 148 4.0 5.0 0.00 0.00 0.00 78 1006.0
20260904121404 46 149 3.0 5.0 0.00 0.00 0.00 77 1006.0
20260904121301 46 149 3.0 4.0 0.00 0.00 0.00 78 1006.0
20260904121146 46 149 2.0 4.0 0.00 0.00 0.00 78 1006.0
20260904121042 46 149 2.0 4.0 0.00 0.00 0.00 78 1005.9
20260904120953 46 149 2.0 4.0 0.00 0.00 0.00 78 1006.0
20260904120851 46 149 2.0 4.0 0.00 0.00 0.00 78 1005.9
20260904120757 46 149 2.0 4.0 0.00 0.00 0.00 78 1005.9
20260904120657 46 149 2.0 4.0 0.00 0.00 0.00 78 1006.0
20260904120601 46 149 2.0 4.0 0.00 0.00 0.00 77 1005.9
20260904120457 46 149 2.0 4.0 0.00 0.00 0.00 77 1005.9
20260904120404 46 149 2.0 4.0 0.00 0.00 0.00 77 1005.9
20260904120315 46 149 2.0 4.0 0.00 0.00 0.00 77 1005.9
20260904120147 46 149 3.0 4.0 0.00 0.00 0.00 77 1006.0
20260904120043 46 149 2.0 4.0 0.00 0.00 0.00 77 1005.9
20260904115948 46 149 2.0 4.0 0.00 0.00 0.00 77 1005.9
20260904115853 46 149 2.0 4.0 0.00 0.00 0.00 77 1006.0
20260904115751 46 149 2.0 4.0 0.00 0.00 0.00 77 1005.9
20260904115718 46 149 2.0 4.0 0.00 0.00 0.00 77 1005.9
20260904115552 46 149 2.0 5.0 0.00 0.00 0.00 77 1005.9
20260904115504 46 149 2.0 5.0 0.00 0.00 0.00 77 1005.9
20260904115400 46 149 2.0 5.0 0.00 0.00 0.00 77 1006.0
20260904115306 46 149 2.0 7.0 0.00 0.00 0.00 77 1005.9
20260904115141 46 149 2.0 7.0 0.00 0.00 0.00 77 1005.9
20260904115109 46 149 2.0 7.0 0.00 0.00 0.00 77 1005.9
20260904114943 46 149 2.0 7.0 0.00 0.00 0.00 77 1005.9
20260904114840 46 149 2.0 7.0 0.00 0.00 0.00 77 1005.8
20260904114811 46 149 3.0 7.0 0.00 0.00 0.00 77 1005.8
20260904114659 46 149 3.0 7.0 0.00 0.00 0.00 76 1005.9
20260904114554 46 147 3.0 7.0 0.00 0.00 0.00 76 1005.9
20260904114452 46 147 4.0 7.0 0.00 0.00 0.00 76 1005.8
20260904114359 46 147 3.0 7.0 0.00 0.00 0.00 76 1005.8
20260904114326 46 146 3.0 7.0 0.00 0.00 0.00 76 1005.8
20260904114144 46 143 2.0 7.0 0.00 0.00 0.00 76 1005.9
20260904114045 46 143 2.0 7.0 0.00 0.00 0.00 76 1005.8
20260904113950 46 143 4.0 7.0 0.00 0.00 0.00 76 1005.8
20260904113846 46 142 4.0 7.0 0.00 0.00 0.00 76 1005.7
20260904113812 46 142 4.0 7.0 0.00 0.00 0.00 76 1005.7
20260904113658 46 142 3.0 7.0 0.00 0.00 0.00 76 1005.7
20260904113554 46 142 3.0 7.0 0.00 0.00 0.00 76 1005.7
20260904113451 46 142 3.0 7.0 0.00 0.00 0.00 76 1005.7
20260904113402 46 141 3.0 7.0 0.00 0.00 0.00 76 1005.7
20260904113240 47 140 2.0 7.0 0.00 0.00 0.00 76 1005.7
20260904113209 47 140 2.0 7.0 0.00 0.00 0.00 76 1005.7
20260904113103 47 140 2.0 5.0 0.00 0.00 0.00 76 1005.6
20260904112948 47 140 3.0 5.0 0.00 0.00 0.00 76 1005.6
20260904112843 47 141 3.0 5.0 0.00 0.00 0.00 76 1005.7
20260904112749 47 141 3.0 5.0 0.00 0.00 0.00 76 1005.6
20260904112708 47 140 3.0 5.0 0.00 0.00 0.00 76 1005.7
20260904112556 47 140 3.0 5.0 0.00 0.00 0.00 76 1005.7
20260904112453 47 140 3.0 5.0 0.00 0.00 0.00 76 1005.7
20260904112357 47 140 3.0 5.0 0.00 0.00 0.00 76 1005.6
20260904112255 47 140 3.0 5.0 0.00 0.00 0.00 76 1005.6
20260904112203 47 140 3.0 7.0 0.00 0.00 0.00 76 1005.6
20260904112059 47 140 3.0 8.0 0.00 0.00 0.00 76 1005.6
20260904111940 47 141 3.0 8.0 0.00 0.00 0.00 76 1005.6
20260904111845 47 141 3.0 8.0 0.00 0.00 0.00 76 1005.6
20260904111742 47 141 3.0 8.0 0.00 0.00 0.00 76 1005.6
20260904111642 47 141 3.0 8.0 0.00 0.00 0.00 76 1005.5
20260904111544 47 141 3.0 8.0 0.00 0.00 0.00 76 1005.6
20260904111441 47 141 3.0 8.0 0.00 0.00 0.00 76 1005.6
20260904111351 47 142 4.0 8.0 0.00 0.00 0.00 76 1005.5
20260904111249 47 142 4.0 8.0 0.00 0.00 0.00 77 1005.5
20260904111156 47 142 3.0 8.0 0.00 0.00 0.00 77 1005.5
20260904111052 47 142 3.0 8.0 0.00 0.00 0.00 77 1005.5
20260904110950 47 142 3.0 8.0 0.00 0.00 0.00 77 1005.5
20260904110857 47 142 3.0 8.0 0.00 0.00 0.00 77 1005.5
20260904110803 47 142 3.0 8.0 0.00 0.00 0.00 77 1005.5
20260904110645 47 142 3.0 8.0 0.00 0.00 0.00 77 1005.5
20260904110541 47 142 4.0 8.0 0.00 0.00 0.00 77 1005.5
20260904110443 47 143 4.0 8.0 0.00 0.00 0.00 77 1005.5
20260904110400 47 143 4.0 7.0 0.00 0.00 0.00 77 1005.5
20260904110258 48 143 4.0 7.0 0.00 0.00 0.00 77 1005.5
20260904110201 48 144 4.0 7.0 0.00 0.00 0.00 77 1005.6
20260904110040 48 144 4.0 7.0 0.00 0.00 0.00 77 1005.6
20260904110006 48 146 3.0 8.0 0.00 0.00 0.00 77 1005.6
20260904105851 48 146 4.0 8.0 0.00 0.00 0.00 77 1005.6
20260904105749 48 147 4.0 8.0 0.00 0.00 0.00 77 1005.5
20260904105654 48 147 4.0 8.0 0.00 0.00 0.00 77 1005.6
20260904105550 48 147 4.0 8.0 0.00 0.00 0.00 77 1005.6
20260904105456 48 147 4.0 8.0 0.00 0.00 0.00 77 1005.6
20260904105352 48 150 4.0 8.0 0.00 0.00 0.00 77 1005.6
20260904105305 48 150 4.0 8.0 0.00 0.00 0.00 77 1005.6
20260904105200 48 150 4.0 8.0 0.00 0.00 0.00 77 1005.6
20260904105056 48 150 4.0 8.0 0.00 0.00 0.00 77 1005.6
20260904105004 48 150 4.0 8.0 0.00 0.00 0.00 78 1005.6
20260904104840 48 150 5.0 8.0 0.00 0.00 0.00 78 1005.7
20260904104808 48 151 5.0 8.0 0.00 0.00 0.00 78 1005.7
20260904104709 48 152 4.0 8.0 0.00 0.00 0.00 78 1005.6
20260904104554 48 152 5.0 8.0 0.00 0.00 0.00 78 1005.6
20260904104449 48 153 4.0 8.0 0.00 0.00 0.00 78 1005.6
20260904104347 48 158 3.0 7.0 0.00 0.00 0.00 78 1005.6
20260904104253 48 159 3.0 7.0 0.00 0.00 0.00 78 1005.6
20260904104158 48 159 3.0 7.0 0.00 0.00 0.00 78 1005.6
20260904104054 48 160 3.0 7.0 0.00 0.00 0.00 78 1005.6
20260904103956 48 160 4.0 7.0 0.00 0.00 0.00 78 1005.6
20260904103902 48 160 4.0 7.0 0.00 0.00 0.00 77 1005.6
20260904103829 48 164 3.0 5.0 0.00 0.00 0.00 77 1005.6
20260904103646 48 164 3.0 4.0 0.00 0.00 0.00 77 1005.6
20260904103542 48 316 2.0 4.0 0.00 0.00 0.00 77 1005.6
20260904103508 48 316 2.0 4.0 0.00 0.00 0.00 77 1005.6
20260904103343 48 316 1.0 3.0 0.00 0.00 0.00 77 1005.6
20260904103249 48 316 1.0 3.0 0.00 0.00 0.00 77 1005.5
20260904103201 48 316 1.0 3.0 0.00 0.00 0.00 77 1005.6
20260904103116 48 316 2.0 3.0 0.00 0.00 0.00 77 1005.5
20260904103001 48 316 1.0 3.0 0.00 0.00 0.00 77 1005.5
20260904102927 48 316 1.0 3.0 0.00 0.00 0.00 77 1005.5
20260904102741 48 316 1.0 3.0 0.00 0.00 0.00 77 1005.5
20260904102648 48 316 1.0 3.0 0.00 0.00 0.00 77 1005.5
20260904102542 48 316 1.0 3.0 0.00 0.00 0.00 77 1005.5
20260904102508 48 316 1.0 3.0 0.00 0.00 0.00 77 1005.5
20260904102414 48 316 1.0 3.0 0.00 0.00 0.00 77 1005.4
20260904102254 48 316 1.0 3.0 0.00 0.00 0.00 77 1005.4
20260904102203 48 316 1.0 3.0 0.00 0.00 0.00 77 1005.4
20260904102055 48 316 2.0 3.0 0.00 0.00 0.00 77 1005.4
20260904101951 48 316 1.0 3.0 0.00 0.00 0.00 77 1005.4
20260904101858 48 316 1.0 3.0 0.00 0.00 0.00 77 1005.3
20260904101755 48 316 1.0 3.0 0.00 0.00 0.00 77 1005.3
20260904101707 48 316 1.0 3.0 0.00 0.00 0.00 77 1005.3
20260904101543 48 316 1.0 3.0 0.00 0.00 0.00 77 1005.3
20260904101441 48 316 2.0 3.0 0.00 0.00 0.00 77 1005.3
20260904101348 48 316 1.0 3.0 0.00 0.00 0.00 77 1005.3
20260904101245 48 316 1.0 3.0 0.00 0.00 0.00 77 1005.3
20260904101143 48 316 1.0 3.0 0.00 0.00 0.00 77 1005.2
20260904101050 48 316 2.0 3.0 0.00 0.00 0.00 77 1005.2
20260904100947 48 316 2.0 3.0 0.00 0.00 0.00 77 1005.2
20260904100914 48 316 2.0 3.0 0.00 0.00 0.00 77 1005.1
20260904100759 48 316 1.0 2.0 0.00 0.00 0.00 77 1005.2
20260904100657 48 316 1.0 2.0 0.00 0.00 0.00 77 1005.1
20260904100554 48 316 2.0 2.0 0.00 0.00 0.00 77 1005.2
20260904100500 48 316 2.0 2.0 0.00 0.00 0.00 77 1005.1
20260904100354 48 316 2.0 2.0 0.00 0.00 0.00 77 1005.1
20260904100255 48 316 1.0 2.0 0.00 0.00 0.00 77 1005.1
20260904100210 48 316 1.0 2.0 0.00 0.00 0.00 77 1005.1
20260904100046 48 316 1.0 2.0 0.00 0.00 0.00 77 1005.2
20260904095943 48 316 1.0 2.0 0.00 0.00 0.00 77 1005.2
20260904095908 48 316 1.0 2.0 0.00 0.00 0.00 77 1005.2
20260904095744 48 316 1.0 2.0 0.00 0.00 0.00 77 1005.2
20260904095655 48 316 1.0 2.0 0.00 0.00 0.00 77 1005.3
20260904095610 48 316 1.0 2.0 0.00 0.00 0.00 77 1005.2
20260904095456 48 316 1.0 2.0 0.00 0.00 0.00 77 1005.3
20260904095352 48 316 2.0 2.0 0.00 0.00 0.00 77 1005.2
20260904095253 48 316 1.0 2.0 0.00 0.00 0.00 77 1005.2
20260904095152 48 316 1.0 2.0 0.00 0.00 0.00 77 1005.2
20260904095118 48 316 1.0 2.0 0.00 0.00 0.00 77 1005.2
20260904095024 48 316 1.0 2.0 0.00 0.00 0.00 77 1005.3
20260904094844 48 316 1.0 2.0 0.00 0.00 0.00 77 1005.3
20260904094747 48 316 1.0 2.0 0.00 0.00 0.00 77 1005.3
20260904094646 48 316 1.0 2.0 0.00 0.00 0.00 77 1005.3
20260904094542 48 316 1.0 2.0 0.00 0.00 0.00 77 1005.3
20260904094509 48 316 1.0 2.0 0.00 0.00 0.00 77 1005.4
20260904094414 48 316 0.0 2.0 0.00 0.00 0.00 77 1005.4
20260904094321 48 316 0.0 2.0 0.00 0.00 0.00 77 1005.4
20260904094158 48 316 0.0 2.0 0.00 0.00 0.00 77 1005.4
20260904094045 48 316 1.0 2.0 0.00 0.00 0.00 77 1005.4
20260904093943 48 316 1.0 2.0 0.00 0.00 0.00 77 1005.5
20260904093849 48 316 1.0 2.0 0.00 0.00 0.00 77 1005.5
20260904093746 48 316 0.0 2.0 0.00 0.00 0.00 77 1005.5
20260904093644 48 316 0.0 2.0 0.00 0.00 0.00 77 1005.5
20260904093548 48 316 0.0 2.0 0.00 0.00 0.00 77 1005.5
20260904093443 48 316 1.0 2.0 0.00 0.00 0.00 77 1005.4
20260904093353 48 316 1.0 2.0 0.00 0.00 0.00 77 1005.4
20260904093243 48 316 1.0 2.0 0.00 0.00 0.00 77 1005.4
20260904093142 48 316 1.0 2.0 0.00 0.00 0.00 77 1005.4
20260904093046 48 316 0.0 0.0 0.00 0.00 0.00 76 1005.4
20260904092943 48 316 0.0 0.0 0.00 0.00 0.00 76 1005.4
20260904092849 48 316 0.0 0.0 0.00 0.00 0.00 76 1005.4
20260904092750 48 316 0.0 0.0 0.00 0.00 0.00 76 1005.4
20260904092657 48 316 0.0 0.0 0.00 0.00 0.00 76 1005.5
20260904092613 48 316 0.0 0.0 0.00 0.00 0.00 76 1005.4
20260904092459 48 316 0.0 0.0 0.00 0.00 0.00 76 1005.4
20260904092356 48 316 0.0 0.0 0.00 0.00 0.00 76 1005.4
20260904092242 48 316 0.0 0.0 0.00 0.00 0.00 76 1005.4
20260904092157 48 316 0.0 0.0 0.00 0.00 0.00 76 1005.4
20260904092046 48 316 0.0 0.0 0.00 0.00 0.00 76 1005.5
20260904091943 48 316 0.0 0.0 0.00 0.00 0.00 76 1005.4
20260904091909 48 316 0.0 0.0 0.00 0.00 0.00 76 1005.4
20260904091746 48 316 0.0 0.0 0.00 0.00 0.00 76 1005.4
20260904091644 48 316 0.0 0.0 0.00 0.00 0.00 76 1005.4
20260904091548 48 316 0.0 0.0 0.00 0.00 0.00 76 1005.4
20260904091446 48 316 0.0 0.0 0.00 0.00 0.00 75 1005.4
20260904091357 48 316 0.0 0.0 0.00 0.00 0.00 75 1005.4
20260904091254 48 316 0.0 0.0 0.00 0.00 0.00 75 1005.3
20260904091153 48 316 0.0 0.0 0.00 0.00 0.00 75 1005.3
20260904091057 48 316 0.0 0.0 0.00 0.00 0.00 75 1005.4
20260904091002 48 316 0.0 0.0 0.00 0.00 0.00 76 1005.3
20260904090840 48 316 0.0 0.0 0.00 0.00 0.00 76 1005.3
20260904090740 49 316 0.0 0.0 0.00 0.00 0.00 76 1005.3
20260904090707 49 316 0.0 0.0 0.00 0.00 0.00 75 1005.3
20260904090542 49 316 0.0 0.0 0.00 0.00 0.00 75 1005.3
20260904090447 49 316 0.0 0.0 0.00 0.00 0.00 75 1005.3
20260904090345 49 316 0.0 0.0 0.00 0.00 0.00 75 1005.3
20260904090302 49 316 0.0 0.0 0.00 0.00 0.00 75 1005.3
20260904090205 49 316 0.0 0.0 0.00 0.00 0.00 75 1005.3
20260904090050 49 316 0.0 0.0 0.00 0.00 0.00 75 1005.3
20260904085949 49 316 0.0 0.0 0.00 0.00 0.00 74 1005.3
20260904085856 49 316 0.0 0.0 0.00 0.00 0.00 74 1005.4
20260904085823 49 316 0.0 1.0 0.00 0.00 0.00 74 1005.4
20260904085701 49 316 0.0 1.0 0.00 0.00 0.00 75 1005.4
20260904085557 49 316 0.0 1.0 0.00 0.00 0.00 75 1005.3
20260904085504 49 316 0.0 2.0 0.00 0.00 0.00 75 1005.3
20260904085345 49 316 0.0 2.0 0.00 0.00 0.00 75 1005.4
20260904085243 49 316 0.0 2.0 0.00 0.00 0.00 75 1005.4
20260904085150 49 316 0.0 2.0 0.00 0.00 0.00 75 1005.4
20260904085045 49 316 0.0 2.0 0.00 0.00 0.00 75 1005.4
20260904084951 49 316 0.0 2.0 0.00 0.00 0.00 75 1005.4
20260904084848 49 316 1.0 2.0 0.00 0.00 0.00 75 1005.4
20260904084755 49 316 1.0 2.0 0.00 0.00 0.00 75 1005.3
20260904084655 49 316 2.0 2.0 0.00 0.00 0.00 75 1005.3
20260904084552 49 316 1.0 2.0 0.00 0.00 0.00 75 1005.3
20260904084458 49 316 2.0 2.0 0.00 0.00 0.00 75 1005.3
20260904084425 49 316 2.0 2.0 0.00 0.00 0.00 75 1005.3
20260904084301 49 316 1.0 2.0 0.00 0.00 0.00 74 1005.3
20260904084230 49 316 1.0 2.0 0.00 0.00 0.00 74 1005.3
20260904084045 49 316 0.0 1.0 0.00 0.00 0.00 74 1005.3
20260904083947 49 316 0.0 1.0 0.00 0.00 0.00 74 1005.2
20260904083854 49 316 0.0 1.0 0.00 0.00 0.00 74 1005.2
20260904083751 49 316 0.0 1.0 0.00 0.00 0.00 75 1005.2
20260904083700 49 316 0.0 1.0 0.00 0.00 0.00 75 1005.2
20260904083555 49 316 0.0 1.0 0.00 0.00 0.00 74 1005.2
20260904083520 49 316 0.0 1.0 0.00 0.00 0.00 74 1005.2
20260904083340 49 316 0.0 2.0 0.00 0.00 0.00 74 1005.2
20260904083308 49 316 0.0 2.0 0.00 0.00 0.00 74 1005.2
20260904083145 49 316 0.0 2.0 0.00 0.00 0.00 74 1005.2
20260904083040 49 316 0.0 2.0 0.00 0.00 0.00 74 1005.1
20260904083006 49 316 0.0 3.0 0.00 0.00 0.00 74 1005.1
20260904082843 49 316 0.0 3.0 0.00 0.00 0.00 74 1005.1
20260904082809 49 316 1.0 3.0 0.00 0.00 0.00 74 1005.1
20260904082652 49 316 1.0 3.0 0.00 0.00 0.00 74 1005.1
20260904082616 49 316 1.0 3.0 0.00 0.00 0.00 74 1005.1
20260904082450 49 316 1.0 3.0 0.00 0.00 0.00 74 1005.1
20260904082415 49 316 1.0 3.0 0.00 0.00 0.00 74 1005.1
20260904082305 49 316 1.0 3.0 0.00 0.00 0.00 74 1005.1
20260904082158 49 316 1.0 3.0 0.00 0.00 0.00 74 1005.1
20260904082103 49 316 1.0 3.0 0.00 0.00 0.00 74 1005.1
20260904081940 49 316 1.0 3.0 0.00 0.00 0.00 74 1005.2
20260904081842 49 316 1.0 3.0 0.00 0.00 0.00 74 1005.1
20260904081749 49 316 1.0 3.0 0.00 0.00 0.00 74 1005.1
20260904081648 49 316 1.0 3.0 0.00 0.00 0.00 74 1005.1
20260904081552 49 316 1.0 3.0 0.00 0.00 0.00 73 1005.1
20260904081450 49 316 1.0 3.0 0.00 0.00 0.00 74 1005.1
20260904081355 49 316 1.0 3.0 0.00 0.00 0.00 73 1005.1
20260904081257 49 316 2.0 3.0 0.00 0.00 0.00 73 1005.1
20260904081156 49 316 2.0 3.0 0.00 0.00 0.00 73 1005.1
20260904081055 49 316 2.0 3.0 0.00 0.00 0.00 73 1005.1
20260904080953 49 316 2.0 3.0 0.00 0.00 0.00 73 1005.1
20260904080900 49 316 1.0 3.0 0.00 0.00 0.00 74 1005.1
20260904080757 49 316 1.0 3.0 0.00 0.00 0.00 74 1005.1
20260904080705 49 316 1.0 3.0 0.00 0.00 0.00 74 1005.1
20260904080604 49 316 1.0 3.0 0.00 0.00 0.00 74 1005.1
20260904080440 49 316 1.0 3.0 0.00 0.00 0.00 74 1005.1
20260904080346 49 316 2.0 3.0 0.00 0.00 0.00 73 1005.0
20260904080254 49 316 1.0 3.0 0.00 0.00 0.00 73 1005.0
20260904080150 49 316 1.0 3.0 0.00 0.00 0.00 73 1005.0
20260904080045 49 316 1.0 3.0 0.00 0.00 0.00 73 1005.1
20260904075955 49 316 1.0 3.0 0.00 0.00 0.00 73 1005.1
20260904075851 50 316 1.0 3.0 0.00 0.00 0.00 73 1005.1
20260904075758 49 316 1.0 3.0 0.00 0.00 0.00 73 1005.1
20260904075717 50 316 1.0 3.0 0.00 0.00 0.00 73 1005.0
20260904075601 50 316 1.0 3.0 0.00 0.00 0.00 73 1005.0
20260904075459 50 316 2.0 3.0 0.00 0.00 0.00 73 1005.0
20260904075405 50 316 2.0 3.0 0.00 0.00 0.00 73 1005.0
20260904075307 50 316 1.0 3.0 0.00 0.00 0.00 73 1005.0
20260904075152 50 316 0.0 0.0 0.00 0.00 0.00 73 1005.0
20260904075044 50 316 0.0 0.0 0.00 0.00 0.00 73 1005.0
20260904075011 50 316 0.0 0.0 0.00 0.00 0.00 73 1004.9
20260904074856 50 316 0.0 0.0 0.00 0.00 0.00 73 1005.0
20260904074753 50 316 0.0 0.0 0.00 0.00 0.00 73 1005.0
20260904074653 50 316 0.0 0.0 0.00 0.00 0.00 73 1005.0
20260904074540 50 316 0.0 0.0 0.00 0.00 0.00 73 1005.0
20260904074458 50 316 0.0 0.0 0.00 0.00 0.00 73 1004.9
20260904074405 50 316 0.0 0.0 0.00 0.00 0.00 73 1004.9
20260904074307 50 316 0.0 0.0 0.00 0.00 0.00 73 1004.9
20260904074146 50 316 0.0 0.0 0.00 0.00 0.00 73 1004.9
20260904074043 50 316 0.0 0.0 0.00 0.00 0.00 73 1004.9
20260904073941 50 316 0.0 0.0 0.00 0.00 0.00 73 1004.9
20260904073850 50 316 0.0 0.0 0.00 0.00 0.00 73 1004.9
20260904073747 50 316 0.0 0.0 0.00 0.00 0.00 73 1004.9
20260904073713 50 316 0.0 0.0 0.00 0.00 0.00 73 1004.8
20260904073557 50 316 0.0 0.0 0.00 0.00 0.00 73 1004.9
20260904073454 50 316 0.0 0.0 0.00 0.00 0.00 72 1004.8
20260904073350 50 316 0.0 0.0 0.00 0.00 0.00 72 1004.9
20260904073256 50 316 0.0 0.0 0.00 0.00 0.00 72 1004.9
20260904073158 50 316 0.0 0.0 0.00 0.00 0.00 72 1004.8
20260904073103 50 316 0.0 0.0 0.00 0.00 0.00 72 1004.8
20260904073021 50 316 0.0 0.0 0.00 0.00 0.00 72 1004.9
20260904072906 50 316 0.0 0.0 0.00 0.00 0.00 72 1004.9
20260904072743 50 316 0.0 0.0 0.00 0.00 0.00 72 1004.9
20260904072643 50 316 0.0 0.0 0.00 0.00 0.00 72 1004.8
20260904072607 50 316 0.0 0.0 0.00 0.00 0.00 72 1004.9
20260904072456 50 316 0.0 0.0 0.00 0.00 0.00 72 1004.9
20260904072353 50 316 0.0 2.0 0.00 0.00 0.00 72 1004.8
20260904072320 50 316 0.0 2.0 0.00 0.00 0.00 72 1004.8
20260904072157 50 316 0.0 2.0 0.00 0.00 0.00 72 1004.8
20260904072100 50 316 0.0 2.0 0.00 0.00 0.00 71 1004.8
20260904071956 50 316 0.0 2.0 0.00 0.00 0.00 71 1004.9
20260904071854 50 316 0.0 2.0 0.00 0.00 0.00 71 1004.8
20260904071743 50 316 0.0 2.0 0.00 0.00 0.00 71 1004.8
20260904071643 50 316 0.0 2.0 0.00 0.00 0.00 71 1004.8
20260904071539 50 316 1.0 2.0 0.00 0.00 0.00 71 1004.9
20260904071445 50 316 1.0 2.0 0.00 0.00 0.00 71 1004.8
20260904071343 50 316 1.0 2.0 0.00 0.00 0.00 71 1004.9
20260904071249 50 316 1.0 2.0 0.00 0.00 0.00 71 1004.9
20260904071152 50 316 0.0 2.0 0.00 0.00 0.00 71 1004.9
20260904071056 50 316 1.0 3.0 0.00 0.00 0.00 71 1004.9
20260904070954 50 316 1.0 3.0 0.00 0.00 0.00 71 1005.0
20260904070901 50 316 1.0 3.0 0.00 0.00 0.00 71 1005.0
20260904070827 51 316 1.0 3.0 0.00 0.00 0.00 71 1005.0
20260904070646 51 316 1.0 3.0 0.00 0.00 0.00 71 1005.0
20260904070542 51 316 1.0 3.0 0.00 0.00 0.00 71 1004.9
20260904070508 51 316 1.0 3.0 0.00 0.00 0.00 71 1005.0
20260904070401 51 316 1.0 3.0 0.00 0.00 0.00 71 1004.9
20260904070306 51 316 1.0 3.0 0.00 0.00 0.00 71 1004.9
20260904070201 51 316 1.0 3.0 0.00 0.00 0.00 71 1004.9
20260904070056 51 316 2.0 4.0 0.00 0.00 0.00 71 1004.9
20260904070023 51 316 1.0 4.0 0.00 0.00 0.00 71 1004.8
20260904065859 51 316 1.0 4.0 0.00 0.00 0.00 71 1004.9
20260904065743 51 316 1.0 4.0 0.00 0.00 0.00 71 1004.8
20260904065715 51 316 2.0 4.0 0.00 0.00 0.00 71 1004.9
20260904065549 51 316 2.0 4.0 0.00 0.00 0.00 70 1004.8
20260904065446 51 316 3.0 4.0 0.00 0.00 0.00 70 1004.8
20260904065352 51 316 3.0 4.0 0.00 0.00 0.00 70 1004.8
20260904065250 51 316 3.0 4.0 0.00 0.00 0.00 70 1004.8
20260904065157 51 316 2.0 4.0 0.00 0.00 0.00 70 1004.8
20260904065053 51 316 2.0 3.0 0.00 0.00 0.00 70 1004.8
20260904065004 51 316 1.0 3.0 0.00 0.00 0.00 70 1004.8
20260904064841 51 316 1.0 3.0 0.00 0.00 0.00 70 1004.7
20260904064759 51 316 1.0 3.0 0.00 0.00 0.00 70 1004.7
20260904064706 51 316 1.0 3.0 0.00 0.00 0.00 70 1004.7
20260904064541 51 316 2.0 3.0 0.00 0.00 0.00 70 1004.7
20260904064448 51 316 1.0 3.0 0.00 0.00 0.00 70 1004.7
20260904064347 51 316 1.0 3.0 0.00 0.00 0.00 70 1004.8
20260904064254 51 316 1.0 3.0 0.00 0.00 0.00 70 1004.7
20260904064214 51 316 1.0 3.0 0.00 0.00 0.00 70 1004.7
20260904064057 51 316 2.0 3.0 0.00 0.00 0.00 70 1004.8
20260904064025 51 316 1.0 3.0 0.00 0.00 0.00 70 1004.8
20260904063853 51 316 1.0 3.0 0.00 0.00 0.00 70 1004.8
20260904063759 51 316 1.0 3.0 0.00 0.00 0.00 70 1004.8
20260904063657 51 316 1.0 2.0 0.00 0.00 0.00 70 1004.8
20260904063610 51 316 1.0 2.0 0.00 0.00 0.00 70 1004.8
20260904063445 51 316 1.0 2.0 0.00 0.00 0.00 70 1004.8
20260904063343 51 316 1.0 2.0 0.00 0.00 0.00 70 1004.8
20260904063241 51 316 0.0 3.0 0.00 0.00 0.00 70 1004.7
20260904063148 51 316 0.0 3.0 0.00 0.00 0.00 70 1004.8
20260904063044 51 316 1.0 3.0 0.00 0.00 0.00 70 1004.7
20260904063011 51 316 1.0 3.0 0.00 0.00 0.00 70 1004.7
20260904062900 51 316 1.0 3.0 0.00 0.00 0.00 70 1004.7
20260904062758 51 316 1.0 3.0 0.00 0.00 0.00 69 1004.7
20260904062725 51 316 1.0 3.0 0.00 0.00 0.00 69 1004.7
20260904062539 51 316 1.0 3.0 0.00 0.00 0.00 69 1004.8
20260904062506 51 316 2.0 3.0 0.00 0.00 0.00 69 1004.7
20260904062341 52 316 1.0 3.0 0.00 0.00 0.00 69 1004.7
20260904062308 52 316 1.0 3.0 0.00 0.00 0.00 69 1004.7
20260904062211 52 316 1.0 3.0 0.00 0.00 0.00 69 1004.7
20260904062054 52 316 2.0 3.0 0.00 0.00 0.00 69 1004.7
20260904061952 52 316 2.0 3.0 0.00 0.00 0.00 69 1004.7
20260904061857 52 316 2.0 2.0 0.00 0.00 0.00 69 1004.7
20260904061753 52 316 2.0 2.0 0.00 0.00 0.00 69 1004.7
20260904061701 52 316 1.0 2.0 0.00 0.00 0.00 69 1004.7
20260904061555 52 316 1.0 2.0 0.00 0.00 0.00 69 1004.7
20260904061507 52 316 0.0 0.0 0.00 0.00 0.00 69 1004.7
20260904061344 52 316 0.0 0.0 0.00 0.00 0.00 69 1004.7
20260904061309 52 316 0.0 0.0 0.00 0.00 0.00 69 1004.7
20260904061146 52 316 0.0 0.0 0.00 0.00 0.00 69 1004.7
20260904061043 52 316 0.0 0.0 0.00 0.00 0.00 69 1004.7
20260904060949 52 315 0.0 0.0 0.00 0.00 0.00 69 1004.6
20260904060845 52 315 0.0 0.0 0.00 0.00 0.00 69 1004.7
20260904060816 52 315 0.0 0.0 0.00 0.00 0.00 69 1004.6
20260904060703 52 315 0.0 0.0 0.00 0.00 0.00 69 1004.7
20260904060558 52 315 0.0 0.0 0.00 0.00 0.00 69 1004.7
20260904060525 52 315 0.0 0.0 0.00 0.00 0.00 68 1004.7
20260904060401 52 315 0.0 0.0 0.00 0.00 0.00 68 1004.7
20260904060337 52 315 0.0 0.0 0.00 0.00 0.00 68 1004.7
20260904060210 52 315 0.0 0.0 0.00 0.00 0.00 68 1004.7
20260904060046 52 315 0.0 0.0 0.00 0.00 0.00 68 1004.7
20260904060016 52 315 0.0 0.0 0.00 0.00 0.00 67 1004.7
20260904055852 52 315 0.0 0.0 0.00 0.00 0.00 67 1004.7
20260904055759 52 315 0.0 0.0 0.00 0.00 0.00 68 1004.7
20260904055657 52 315 0.0 0.0 0.00 0.00 0.00 68 1004.7
20260904055623 52 315 0.0 0.0 0.00 0.00 0.00 68 1004.7
20260904055440 52 315 0.0 0.0 0.00 0.00 0.00 68 1004.7
20260904055406 52 315 0.0 0.0 0.00 0.00 0.00 68 1004.7
20260904055245 52 315 0.0 0.0 0.00 0.00 0.00 68 1004.7
20260904055143 52 315 0.0 0.0 0.00 0.00 0.00 68 1004.7
20260904055048 52 315 0.0 0.0 0.00 0.00 0.00 68 1004.7
20260904055015 52 315 0.0 0.0 0.00 0.00 0.00 68 1004.7
20260904054921 52 315 0.0 0.0 0.00 0.00 0.00 68 1004.7
20260904054756 52 315 0.0 0.0 0.00 0.00 0.00 68 1004.7
20260904054654 52 315 0.0 0.0 0.00 0.00 0.00 68 1004.7
20260904054559 52 315 0.0 0.0 0.00 0.00 0.00 68 1004.7
20260904054441 52 315 0.0 0.0 0.00 0.00 0.00 68 1004.7
20260904054407 52 315 0.0 0.0 0.00 0.00 0.00 68 1004.7
20260904054243 52 315 0.0 0.0 0.00 0.00 0.00 68 1004.7
20260904054140 52 315 0.0 0.0 0.00 0.00 0.00 68 1004.7
20260904054108 52 315 0.0 0.0 0.00 0.00 0.00 68 1004.7
20260904054032 52 315 0.0 0.0 0.00 0.00 0.00 68 1004.7
20260904053844 52 315 0.0 0.0 0.00 0.00 0.00 67 1004.8
20260904053813 52 315 0.0 0.0 0.00 0.00 0.00 67 1004.8
20260904053650 52 315 0.0 0.0 0.00 0.00 0.00 67 1004.8
20260904053555 52 315 0.0 0.0 0.00 0.00 0.00 67 1004.8
20260904053452 52 315 0.0 0.0 0.00 0.00 0.00 67 1004.8
20260904053419 52 315 0.0 0.0 0.00 0.00 0.00 67 1004.8
20260904053254 52 315 0.0 0.0 0.00 0.00 0.00 67 1004.8
20260904053142 52 315 0.0 0.0 0.00 0.00 0.00 67 1004.8
20260904053041 52 315 0.0 2.0 0.00 0.00 0.00 67 1004.8
20260904053007 52 315 0.0 2.0 0.00 0.00 0.00 67 1004.8
20260904052844 52 315 0.0 2.0 0.00 0.00 0.00 67 1004.8
20260904052742 52 315 0.0 2.0 0.00 0.00 0.00 67 1004.8
20260904052650 52 315 0.0 2.0 0.00 0.00 0.00 67 1004.8
20260904052605 52 315 0.0 2.0 0.00 0.00 0.00 67 1004.8
20260904052449 52 315 0.0 2.0 0.00 0.00 0.00 67 1004.8
20260904052359 52 315 0.0 2.0 0.00 0.00 0.00 67 1004.8
20260904052257 52 315 0.0 2.0 0.00 0.00 0.00 67 1004.8
20260904052205 52 315 1.0 2.0 0.00 0.00 0.00 67 1004.8
20260904052059 52 315 1.0 2.0 0.00 0.00 0.00 67 1004.8
20260904051943 52 315 0.0 2.0 0.00 0.00 0.00 67 1004.8
20260904051907 52 315 0.0 2.0 0.00 0.00 0.00 67 1004.8
20260904051745 52 315 0.0 3.0 0.00 0.00 0.00 66 1004.8
20260904051649 52 315 0.0 3.0 0.00 0.00 0.00 66 1004.8
20260904051613 52 315 1.0 3.0 0.00 0.00 0.00 66 1004.8
20260904051450 52 315 1.0 3.0 0.00 0.00 0.00 66 1004.7
20260904051357 52 315 1.0 3.0 0.00 0.00 0.00 66 1004.7
20260904051253 52 315 1.0 3.0 0.00 0.00 0.00 66 1004.7
20260904051201 52 315 0.0 4.0 0.00 0.00 0.00 66 1004.8
20260904051057 52 315 1.0 4.0 0.00 0.00 0.00 66 1004.7
20260904051008 52 315 2.0 4.0 0.00 0.00 0.00 66 1004.7
20260904050845 52 315 2.0 4.0 0.00 0.00 0.00 66 1004.8
20260904050743 52 315 1.0 4.0 0.00 0.00 0.00 66 1004.8
20260904050651 52 315 1.0 4.0 0.00 0.00 0.00 66 1004.8
20260904050547 52 315 2.0 4.0 0.00 0.00 0.00 66 1004.8
20260904050448 52 315 2.0 4.0 0.00 0.00 0.00 66 1004.8
20260904050344 52 315 2.0 3.0 0.00 0.00 0.00 66 1004.8
20260904050306 52 315 1.0 3.0 0.00 0.00 0.00 66 1004.8
20260904050220 53 315 1.0 3.0 0.00 0.00 0.00 66 1004.8
20260904050054 53 316 2.0 3.0 0.00 0.01 0.00 66 1004.8
20260904045951 53 316 1.0 3.0 0.00 0.01 0.00 66 1004.8
20260904045858 53 315 0.0 3.0 0.00 0.01 0.00 66 1004.8
20260904045753 53 315 0.0 4.0 0.00 0.01 0.00 66 1004.8
20260904045719 53 315 0.0 4.0 0.00 0.01 0.00 66 1004.9
20260904045608 53 315 0.0 4.0 0.00 0.01 0.00 66 1004.9
20260904045443 53 315 1.0 4.0 0.00 0.01 0.00 66 1004.9
20260904045409 53 315 2.0 5.0 0.00 0.01 0.00 66 1004.9
20260904045314 53 315 2.0 5.0 0.00 0.01 0.00 66 1004.9
20260904045152 53 315 1.0 5.0 0.00 0.01 0.00 66 1004.8
20260904045055 53 315 2.0 5.0 0.00 0.01 0.00 66 1004.8
20260904045022 53 315 3.0 5.0 0.00 0.01 0.00 66 1004.8
20260904044857 53 316 2.0 5.0 0.00 0.01 0.00 66 1004.8
20260904044754 53 316 3.0 5.0 0.00 0.01 0.00 66 1004.8
20260904044644 53 316 3.0 6.0 0.00 0.01 0.00 66 1004.8
20260904044540 53 316 3.0 9.0 0.00 0.01 0.00 66 1004.8
20260904044446 53 316 3.0 9.0 0.00 0.01 0.00 66 1004.7
20260904044340 53 316 3.0 9.0 0.00 0.01 0.00 66 1004.7
20260904044306 53 316 2.0 9.0 0.00 0.01 0.00 65 1004.7
20260904044143 53 316 3.0 9.0 0.00 0.01 0.00 65 1004.8
20260904044048 53 316 3.0 9.0 0.00 0.01 0.00 65 1004.8
20260904043950 53 315 3.0 9.0 0.00 0.01 0.00 65 1004.8
20260904043857 53 315 5.0 9.0 0.00 0.01 0.00 65 1004.8
20260904043822 53 315 6.0 9.0 0.00 0.01 0.00 65 1004.8
20260904043659 53 317 5.0 9.0 0.00 0.01 0.00 65 1004.8
20260904043553 53 327 4.0 9.0 0.00 0.01 0.00 65 1004.8
20260904043500 53 311 3.0 7.0 0.00 0.01 0.00 65 1004.8
20260904043342 53 311 4.0 6.0 0.00 0.01 0.00 64 1004.8
20260904043306 53 311 3.0 6.0 0.00 0.01 0.00 64 1004.8
20260904043204 54 245 2.0 5.0 0.00 0.01 0.00 64 1004.8
20260904043047 54 245 2.0 5.0 0.00 0.01 0.00 64 1004.8
20260904042945 54 245 2.0 5.0 0.00 0.01 0.00 64 1004.7
20260904042850 54 243 1.0 5.0 0.00 0.01 0.00 64 1004.8
20260904042748 54 243 1.0 5.0 0.00 0.01 0.00 64 1004.7
20260904042655 54 243 1.0 5.0 0.00 0.01 0.00 64 1004.7
20260904042554 54 243 1.0 5.0 0.00 0.01 0.00 64 1004.7
20260904042501 54 243 2.0 5.0 0.00 0.01 0.00 64 1004.7
20260904042359 54 243 2.0 7.0 0.00 0.01 0.00 64 1004.7
20260904042306 54 243 3.0 7.0 0.00 0.01 0.00 64 1004.7
20260904042205 54 243 2.0 7.0 0.00 0.01 0.00 64 1004.8
20260904042047 54 243 1.0 7.0 0.00 0.01 0.00 64 1004.8
20260904041951 54 243 1.0 7.0 0.00 0.01 0.00 64 1004.8
20260904041848 54 243 2.0 7.0 0.00 0.01 0.00 63 1004.7
20260904041759 54 243 3.0 7.0 0.00 0.01 0.00 63 1004.7
20260904041719 54 243 4.0 7.0 0.00 0.01 0.00 64 1004.8
20260904041541 54 243 3.0 8.0 0.00 0.01 0.00 63 1004.7
20260904041507 54 288 2.0 5.0 0.00 0.01 0.00 63 1004.7
20260904041344 54 287 2.0 5.0 0.00 0.01 0.00 63 1004.7
20260904041240 54 287 3.0 5.0 0.00 0.01 0.00 63 1004.7
20260904041147 54 287 3.0 5.0 0.00 0.01 0.00 63 1004.7
20260904041050 54 287 2.0 5.0 0.00 0.01 0.00 63 1004.7
20260904040950 54 287 1.0 7.0 0.00 0.01 0.00 63 1004.7
20260904040856 54 287 2.0 7.0 0.00 0.01 0.00 63 1004.7
20260904040754 54 287 2.0 7.0 0.00 0.01 0.00 63 1004.7
20260904040722 54 287 2.0 7.0 0.00 0.01 0.00 63 1004.7
20260904040556 54 287 2.0 7.0 0.00 0.01 0.00 62 1004.7
20260904040502 54 287 3.0 7.0 0.00 0.01 0.00 62 1004.7
20260904040357 54 287 3.0 7.0 0.00 0.01 0.00 62 1004.6
20260904040255 54 287 3.0 7.0 0.00 0.01 0.00 62 1004.7
20260904040209 54 287 4.0 7.0 0.00 0.01 0.00 62 1004.7
20260904040106 54 287 5.0 7.0 0.00 0.01 0.00 63 1004.7
20260904035951 54 287 4.0 7.0 0.00 0.01 0.00 63 1004.7
20260904035908 54 287 3.0 7.0 0.00 0.01 0.00 62 1004.7
20260904035752 54 286 2.0 6.0 0.00 0.01 0.00 63 1004.7
20260904035720 54 286 1.0 6.0 0.00 0.01 0.00 63 1004.7
20260904035553 54 286 1.0 6.0 0.00 0.01 0.00 63 1004.7
20260904035452 54 286 2.0 7.0 0.00 0.01 0.00 62 1004.7
20260904035357 54 286 2.0 7.0 0.00 0.01 0.00 62 1004.7
20260904035305 54 286 3.0 7.0 0.00 0.01 0.00 62 1004.7
20260904035141 55 286 3.0 9.0 0.00 0.01 0.00 62 1004.7
20260904035056 55 286 3.0 9.0 0.00 0.01 0.00 61 1004.7
20260904034954 55 286 4.0 11.0 0.00 0.01 0.00 61 1004.7
20260904034850 55 286 4.0 11.0 0.00 0.01 0.00 61 1004.7
20260904034739 55 286 4.0 11.0 0.00 0.01 0.00 61 1004.7
20260904034657 55 286 5.0 11.0 0.00 0.01 0.00 61 1004.7
20260904034556 55 287 5.0 11.0 0.00 0.01 0.00 61 1004.7
20260904034453 55 287 5.0 11.0 0.00 0.01 0.00 61 1004.7
20260904034359 55 287 5.0 11.0 0.00 0.01 0.00 61 1004.6
20260904034256 55 286 7.0 11.0 0.00 0.01 0.00 61 1004.6
20260904034225 55 283 7.0 11.0 0.00 0.01 0.00 61 1004.6
20260904034043 55 283 6.0 10.0 0.00 0.01 0.00 61 1004.6
20260904034007 55 256 5.0 10.0 0.00 0.01 0.00 61 1004.6
20260904033904 55 237 6.0 10.0 0.00 0.01 0.00 61 1004.6
20260904033807 55 249 4.0 8.0 0.00 0.01 0.00 61 1004.6
20260904033648 55 254 4.0 7.0 0.00 0.01 0.00 61 1004.5
20260904033540 55 256 4.0 7.0 0.00 0.01 0.00 60 1004.5
20260904033444 55 256 4.0 7.0 0.00 0.01 0.00 61 1004.5
20260904033345 55 203 3.0 7.0 0.00 0.01 0.00 60 1004.4
20260904033249 55 304 1.0 5.0 0.00 0.01 0.00 61 1004.4
20260904033149 55 306 0.0 2.0 0.00 0.01 0.00 60 1004.4
20260904033053 55 306 0.0 4.0 0.00 0.01 0.00 59 1004.4
20260904032949 55 306 0.0 4.0 0.00 0.01 0.00 59 1004.4
20260904032915 55 306 0.0 4.0 0.00 0.01 0.00 59 1004.4
20260904032752 55 306 0.0 4.0 0.00 0.01 0.00 59 1004.3
20260904032704 55 306 0.0 4.0 0.00 0.01 0.00 59 1004.3
20260904032539 55 306 0.0 4.0 0.00 0.01 0.00 59 1004.3
20260904032446 55 306 1.0 4.0 0.00 0.01 0.00 59 1004.2
20260904032343 55 306 2.0 4.0 0.00 0.01 0.00 59 1004.2
20260904032241 55 306 2.0 5.0 0.00 0.01 0.00 59 1004.2
20260904032208 55 306 2.0 5.0 0.00 0.01 0.00 59 1004.2
20260904031945 55 306 1.0 5.0 0.00 0.01 0.00 59 1004.1
20260904031847 56 306 1.0 5.0 0.00 0.01 0.00 59 1004.1
20260904031752 55 306 2.0 5.0 0.00 0.01 0.00 59 1004.1
20260904031650 56 306 3.0 5.0 0.00 0.01 0.00 58 1004.0
20260904031556 56 306 3.0 7.0 0.00 0.01 0.00 58 1004.0
20260904031453 56 306 4.0 7.0 0.00 0.01 0.00 58 1004.0
20260904031400 56 306 4.0 7.0 0.00 0.01 0.00 58 1004.0
20260904031255 56 305 3.0 7.0 0.00 0.01 0.00 58 1004.0
20260904031146 56 304 3.0 8.0 0.00 0.01 0.00 58 1004.0
20260904031042 56 304 2.0 8.0 0.00 0.01 0.00 57 1004.0
20260904031008 56 304 2.0 8.0 0.00 0.01 0.00 58 1004.0
20260904030844 56 305 3.0 8.0 0.00 0.01 0.00 58 1004.0
20260904030740 56 305 4.0 8.0 0.00 0.01 0.00 57 1004.0
20260904030648 56 305 4.0 8.0 0.00 0.01 0.00 57 1003.9
20260904030613 56 303 3.0 8.0 0.00 0.01 0.00 57 1004.0
20260904030453 56 302 4.0 8.0 0.00 0.01 0.00 57 1004.0
20260904030351 56 303 5.0 8.0 0.00 0.01 0.00 57 1004.0
20260904030307 56 303 5.0 8.0 0.00 0.01 0.00 57 1004.0
20260904030154 56 305 5.0 8.0 0.00 0.01 0.00 57 1004.0
20260904030057 56 310 5.0 8.0 0.00 0.01 0.00 57 1004.0
20260904030003 56 297 4.0 7.0 0.00 0.01 0.00 56 1004.0
20260904025919 56 296 3.0 6.0 0.00 0.01 0.00 56 1004.0
20260904025739 56 291 3.0 7.0 0.00 0.01 0.00 56 1004.0
20260904025647 56 291 4.0 7.0 0.00 0.01 0.00 56 1004.0
20260904025550 56 291 3.0 7.0 0.00 0.01 0.00 56 1004.0
20260904025447 56 291 3.0 7.0 0.00 0.01 0.00 56 1004.0
20260904025353 56 291 4.0 9.0 0.00 0.01 0.00 56 1004.0
20260904025251 56 291 3.0 9.0 0.00 0.01 0.00 55 1004.0
20260904025150 56 291 4.0 9.0 0.00 0.01 0.00 55 1004.0
20260904025054 56 291 3.0 9.0 0.00 0.01 0.00 55 1004.0
20260904025004 56 291 4.0 9.0 0.00 0.01 0.00 55 1004.0
20260904024858 56 292 4.0 9.0 0.00 0.01 0.00 55 1004.0
20260904024805 56 292 4.0 9.0 0.00 0.01 0.00 55 1004.0
20260904024644 56 294 6.0 9.0 0.00 0.01 0.00 55 1003.9
20260904024547 57 295 7.0 9.0 0.00 0.01 0.00 55 1003.9
20260904024443 57 261 5.0 9.0 0.00 0.01 0.00 55 1003.9
20260904024348 57 258 5.0 9.0 0.00 0.01 0.00 54 1003.9
20260904024250 57 254 3.0 8.0 0.00 0.01 0.00 54 1003.8
20260904024218 57 254 4.0 8.0 0.00 0.01 0.00 54 1003.8
20260904024051 57 254 4.0 8.0 0.00 0.01 0.00 54 1003.8
20260904023957 57 253 3.0 7.0 0.00 0.01 0.00 55 1003.8
20260904023855 57 252 4.0 7.0 0.00 0.01 0.00 54 1003.8
20260904023820 57 252 4.0 7.0 0.00 0.01 0.00 55 1003.8
20260904023727 57 250 3.0 7.0 0.00 0.01 0.00 54 1003.8
20260904023546 57 250 4.0 8.0 0.00 0.01 0.00 54 1003.8
20260904023444 57 250 4.0 8.0 0.00 0.01 0.00 55 1003.8
20260904023352 57 250 4.0 8.0 0.00 0.01 0.00 54 1003.8
20260904023245 57 250 4.0 8.0 0.00 0.01 0.00 55 1003.8
20260904023145 57 250 4.0 8.0 0.00 0.01 0.00 54 1003.8
20260904023050 57 250 4.0 8.0 0.00 0.01 0.00 54 1003.8
20260904022948 57 250 5.0 8.0 0.00 0.01 0.00 54 1003.8
20260904022919 57 248 4.0 8.0 0.00 0.01 0.00 55 1003.8
20260904022803 57 247 3.0 7.0 0.00 0.01 0.00 54 1003.7
20260904022639 57 271 5.0 7.0 0.00 0.01 0.00 54 1003.7
20260904022607 57 271 5.0 8.0 0.00 0.01 0.00 53 1003.7
20260904022503 57 271 5.0 8.0 0.00 0.01 0.00 53 1003.7
20260904022408 57 270 4.0 10.0 0.00 0.01 0.00 53 1003.7
20260904022306 57 269 4.0 10.0 0.00 0.01 0.00 53 1003.7
20260904022152 57 269 5.0 10.0 0.00 0.01 0.00 53 1003.7
20260904022048 57 269 4.0 10.0 0.00 0.01 0.00 53 1003.7
20260904022013 57 269 4.0 11.0 0.00 0.01 0.00 53 1003.7
20260904021850 58 269 4.0 11.0 0.00 0.01 0.00 53 1003.7
20260904021757 58 267 4.0 12.0 0.00 0.01 0.00 52 1003.7
20260904021654 58 267 5.0 12.0 0.00 0.01 0.00 52 1003.7
20260904021618 58 267 6.0 12.0 0.00 0.01 0.00 52 1003.7
20260904021454 58 267 7.0 12.0 0.00 0.01 0.00 52 1003.7
20260904021405 58 276 7.0 12.0 0.00 0.01 0.00 52 1003.7
20260904021241 58 283 7.0 12.0 0.00 0.01 0.00 52 1003.7
20260904021149 58 281 8.0 12.0 0.00 0.01 0.00 51 1003.7
20260904021044 58 272 7.0 12.0 0.00 0.01 0.00 52 1003.7
20260904020941 58 280 7.0 12.0 0.00 0.01 0.00 52 1003.7
20260904020848 58 296 5.0 12.0 0.00 0.01 0.00 51 1003.7
20260904020746 58 277 6.0 12.0 0.00 0.01 0.00 52 1003.7
20260904020718 58 276 6.0 12.0 0.00 0.01 0.00 51 1003.7
20260904020602 58 272 7.0 12.0 0.00 0.01 0.00 51 1003.7
20260904020440 58 271 8.0 12.0 0.00 0.01 0.00 51 1003.7
20260904020358 58 285 7.0 12.0 0.00 0.01 0.00 52 1003.7
20260904020256 58 256 6.0 9.0 0.00 0.01 0.00 52 1003.7
20260904020141 58 289 5.0 12.0 0.00 0.01 0.00 51 1003.7
20260904020105 58 299 5.0 12.0 0.00 0.03 0.00 51 1003.8
20260904015945 58 302 6.0 12.0 0.00 0.03 0.00 51 1003.7
20260904015851 58 308 5.0 13.0 0.00 0.03 0.00 51 1003.7
20260904015749 58 330 4.0 13.0 0.00 0.03 0.00 51 1003.7
20260904015657 58 296 5.0 13.0 0.00 0.03 0.00 51 1003.7
20260904015553 59 298 5.0 13.0 0.00 0.03 0.00 51 1003.7
20260904015450 59 298 7.0 13.0 0.00 0.03 0.00 50 1003.7
20260904015400 59 293 6.0 13.0 0.00 0.03 0.00 50 1003.7
20260904015243 59 298 6.0 13.0 0.00 0.03 0.00 50 1003.7
20260904015211 59 297 7.0 13.0 0.00 0.03 0.00 50 1003.7
20260904015044 59 263 8.0 13.0 0.00 0.03 0.00 50 1003.7
20260904014950 59 303 8.0 13.0 0.00 0.03 0.00 50 1003.7
20260904014848 59 315 6.0 11.0 0.00 0.03 0.00 50 1003.7
20260904014752 59 283 5.0 12.0 0.00 0.03 0.00 50 1003.6
20260904014650 59 279 5.0 12.0 0.00 0.03 0.00 50 1003.6
20260904014556 59 279 5.0 12.0 0.00 0.03 0.00 50 1003.6
20260904014457 59 278 5.0 12.0 0.00 0.03 0.00 49 1003.6
20260904014403 59 278 7.0 12.0 0.00 0.03 0.00 49 1003.6
20260904014240 59 271 7.0 12.0 0.00 0.03 0.00 50 1003.6
20260904014207 59 273 7.0 12.0 0.00 0.03 0.00 49 1003.6
20260904014103 59 250 8.0 12.0 0.00 0.03 0.00 49 1003.6
20260904013940 59 259 6.0 12.0 0.00 0.03 0.00 49 1003.6
20260904013850 59 299 6.0 13.0 0.00 0.03 0.00 49 1003.6
20260904013748 59 275 7.0 13.0 0.00 0.03 0.00 49 1003.6
20260904013655 59 278 9.0 13.0 0.00 0.03 0.00 48 1003.6
20260904013550 59 273 8.0 13.0 0.00 0.03 0.00 48 1003.6
20260904013454 59 267 8.0 13.0 0.00 0.03 0.00 48 1003.5
20260904013421 59 283 7.0 13.0 0.00 0.03 0.00 48 1003.6
20260904013258 60 281 7.0 13.0 0.00 0.03 0.00 47 1003.5
20260904013205 60 297 9.0 13.0 0.00 0.03 0.00 47 1003.5
20260904013045 60 270 9.0 13.0 0.00 0.03 0.00 47 1003.5
20260904012942 60 281 8.0 12.0 0.00 0.03 0.00 47 1003.5
20260904012849 60 283 9.0 12.0 0.00 0.03 0.00 47 1003.4
20260904012747 60 298 7.0 11.0 0.00 0.03 0.00 47 1003.5
20260904012645 60 306 6.0 10.0 0.00 0.03 0.00 47 1003.5
20260904012611 60 304 6.0 10.0 0.00 0.03 0.00 47 1003.4
20260904012515 60 296 5.0 10.0 0.00 0.03 0.00 47 1003.5
20260904012355 60 292 4.0 8.0 0.00 0.03 0.00 47 1003.4
20260904012301 60 292 5.0 8.0 0.00 0.03 0.00 47 1003.4
20260904012159 60 291 5.0 8.0 0.00 0.03 0.00 47 1003.4
20260904012104 60 288 4.0 7.0 0.00 0.03 0.00 47 1003.4
20260904011939 60 287 3.0 7.0 0.00 0.03 0.00 47 1003.4
20260904011845 60 287 3.0 7.0 0.00 0.03 0.00 46 1003.4
20260904011746 60 287 3.0 7.0 0.00 0.03 0.00 46 1003.4
20260904011644 60 287 4.0 7.0 0.00 0.03 0.00 46 1003.4
20260904011549 60 287 4.0 7.0 0.00 0.03 0.00 46 1003.4
20260904011516 60 287 4.0 7.0 0.00 0.03 0.00 46 1003.4
20260904011353 60 287 4.0 7.0 0.00 0.03 0.00 46 1003.4
20260904011320 60 287 4.0 7.0 0.00 0.03 0.00 46 1003.4
20260904011226 60 287 3.0 7.0 0.00 0.03 0.00 46 1003.4
20260904011102 60 287 3.0 7.0 0.00 0.03 0.00 46 1003.4
20260904010943 61 287 3.0 7.0 0.00 0.03 0.00 46 1003.4
20260904010849 61 286 4.0 7.0 0.00 0.03 0.00 45 1003.4
20260904010755 61 286 4.0 7.0 0.00 0.03 0.00 46 1003.4
20260904010653 61 286 3.0 7.0 0.00 0.03 0.00 46 1003.4
20260904010558 61 286 2.0 6.0 0.00 0.03 0.00 46 1003.4
20260904010454 61 286 3.0 7.0 0.00 0.03 0.00 46 1003.4
20260904010419 61 286 3.0 7.0 0.00 0.03 0.00 46 1003.4
20260904010306 61 286 3.0 7.0 0.00 0.03 0.00 46 1003.4
20260904010204 61 286 3.0 7.0 0.00 0.03 0.00 46 1003.4
20260904010039 61 286 3.0 7.0 0.00 0.05 0.00 46 1003.4
20260904010004 61 285 3.0 7.0 0.00 0.05 0.00 47 1003.4
20260904005842 61 285 4.0 8.0 0.00 0.05 0.00 47 1003.4
20260904005759 61 285 4.0 8.0 0.00 0.05 0.00 47 1003.4
20260904005708 61 285 4.0 8.0 0.00 0.05 0.00 47 1003.4
20260904005547 61 285 3.0 8.0 0.00 0.05 0.00 47 1003.3
20260904005445 61 287 4.0 8.0 0.00 0.05 0.00 46 1003.4
20260904005350 61 287 4.0 8.0 0.00 0.05 0.00 45 1003.4
20260904005316 61 287 5.0 8.0 0.00 0.05 0.00 45 1003.4
20260904005153 61 287 5.0 9.0 0.00 0.05 0.00 45 1003.4
20260904005047 61 287 6.0 9.0 0.00 0.05 0.00 44 1003.4
20260904004955 61 285 5.0 9.0 0.00 0.05 0.00 44 1003.4
20260904004855 61 284 4.0 9.0 0.00 0.05 0.00 44 1003.3
20260904004802 62 284 6.0 9.0 0.00 0.05 0.00 45 1003.3
20260904004709 62 284 6.0 9.0 0.00 0.05 0.00 44 1003.3
20260904004545 62 287 6.0 9.0 0.00 0.05 0.00 44 1003.3
20260904004441 62 288 6.0 9.0 0.00 0.05 0.00 44 1003.3
20260904004407 62 291 5.0 9.0 0.00 0.05 0.00 44 1003.3
20260904004249 62 285 5.0 8.0 0.00 0.05 0.00 44 1003.3
20260904004147 62 276 5.0 7.0 0.00 0.05 0.00 45 1003.3
20260904004053 62 275 4.0 7.0 0.00 0.05 0.00 45 1003.3
20260904003950 62 275 5.0 7.0 0.00 0.05 0.00 44 1003.3
20260904003916 62 283 5.0 7.0 0.00 0.05 0.00 43 1003.3
20260904003752 62 283 5.0 7.0 0.00 0.05 0.00 44 1003.3
20260904003658 62 283 4.0 7.0 0.00 0.05 0.00 43 1003.3
20260904003558 62 283 4.0 7.0 0.00 0.05 0.00 44 1003.3
20260904003505 62 283 4.0 7.0 0.00 0.05 0.00 43 1003.3
20260904003343 62 283 2.0 7.0 0.00 0.05 0.00 42 1003.3
20260904003241 62 281 0.0 6.0 0.00 0.05 0.00 42 1003.3
20260904003149 62 279 1.0 6.0 0.00 0.05 0.00 42 1003.3
20260904003042 62 279 3.0 6.0 0.00 0.05 0.00 43 1003.3
20260904002941 62 279 4.0 6.0 0.00 0.05 0.00 43 1003.3
20260904002848 62 279 4.0 6.0 0.00 0.05 0.00 42 1003.4
20260904002814 63 279 5.0 6.0 0.00 0.05 0.00 43 1003.4
20260904002651 63 279 4.0 6.0 0.00 0.05 0.00 43 1003.4
20260904002542 63 281 4.0 6.0 0.00 0.05 0.00 42 1003.3
20260904002449 63 281 3.0 7.0 0.00 0.05 0.00 42 1003.3
20260904002347 63 281 2.0 8.0 0.00 0.05 0.00 43 1003.4
20260904002253 63 281 2.0 8.0 0.00 0.05 0.00 43 1003.3
20260904002205 63 281 3.0 8.0 0.00 0.05 0.00 43 1003.3
20260904002041 63 281 3.0 8.0 0.00 0.05 0.00 43 1003.4
20260904001948 63 281 3.0 8.0 0.00 0.05 0.00 42 1003.4
20260904001842 63 281 3.0 8.0 0.00 0.05 0.00 41 1003.4
20260904001749 63 281 4.0 8.0 0.00 0.05 0.00 42 1003.4
20260904001718 63 281 4.0 8.0 0.00 0.05 0.00 41 1003.4
20260904001552 63 283 5.0 8.0 0.00 0.05 0.00 41 1003.4
20260904001454 63 283 4.0 8.0 0.00 0.05 0.00 42 1003.4
20260904001340 63 284 4.0 8.0 0.00 0.05 0.00 42 1003.4
20260904001259 63 284 5.0 9.0 0.00 0.05 0.00 42 1003.4
20260904001206 63 284 5.0 9.0 0.00 0.05 0.00 43 1003.4
20260904001042 63 308 5.0 9.0 0.00 0.05 0.00 43 1003.4
20260904001008 63 303 5.0 9.0 0.00 0.05 0.00 43 1003.4
20260904000848 63 264 5.0 9.0 0.00 0.05 0.00 44 1003.4
20260904000816 63 264 5.0 9.0 0.00 0.05 0.00 45 1003.3
20260904000712 63 264 6.0 9.0 0.00 0.05 0.00 44 1003.4
20260904000556 63 267 6.0 9.0 0.00 0.05 0.00 43 1003.4
20260904000512 63 269 7.0 9.0 0.00 0.05 0.00 42 1003.3
20260904000358 63 266 6.0 9.0 0.00 0.05 0.00 42 1003.3
20260904000334 63 267 6.0 9.0 0.00 0.05 0.00 42 1003.3
20260904000158 63 271 5.0 9.0 0.00 0.05 0.00 44 1003.3
20260904000104 63 294 4.0 9.0 0.00 0.05 0.00 43 1003.4
20260903235944 63 256 3.0 9.0 0.00 0.10 0.00 44 1003.4
20260903235841 63 256 4.0 9.0 0.00 0.10 0.00 43 1003.4
20260903235748 63 256 5.0 9.0 0.00 0.10 0.00 44 1003.4
20260903235647 63 223 5.0 9.0 0.00 0.10 0.00 46 1003.4
20260903235550 63 217 6.0 9.0 0.00 0.10 0.00 46 1003.4
20260903235446 63 212 5.0 9.0 0.00 0.10 0.00 46 1003.3
20260903235356 63 215 5.0 8.0 0.00 0.10 0.00 46 1003.4
20260903235251 63 211 5.0 8.0 0.00 0.10 0.00 44 1003.4
20260903235220 63 210 5.0 8.0 0.00 0.10 0.00 44 1003.4
20260903235053 63 210 4.0 8.0 0.00 0.10 0.00 45 1003.4
20260903234959 62 289 2.0 8.0 0.00 0.10 0.00 43 1003.4
20260903234856 63 296 4.0 8.0 0.00 0.10 0.00 43 1003.4
20260903234803 63 296 5.0 8.0 0.00 0.10 0.00 43 1003.4
20260903234706 63 238 5.0 8.0 0.00 0.10 0.00 44 1003.4
20260903234548 63 262 4.0 8.0 0.00 0.10 0.00 43 1003.4
20260903234446 63 260 3.0 8.0 0.00 0.10 0.00 43 1003.4
20260903234353 63 259 4.0 8.0 0.00 0.10 0.00 43 1003.4
20260903234251 63 260 5.0 8.0 0.00 0.10 0.00 43 1003.4
20260903234158 63 258 5.0 8.0 0.00 0.10 0.00 44 1003.4
20260903234052 63 215 3.0 5.0 0.00 0.10 0.00 46 1003.4
20260903233942 63 138 1.0 4.0 0.00 0.10 0.00 44 1003.4
20260903233839 63 136 1.0 4.0 0.00 0.10 0.00 43 1003.4
20260903233806 63 136 1.0 4.0 0.00 0.10 0.00 43 1003.4
20260903233645 63 136 1.0 4.0 0.00 0.10 0.00 43 1003.4
20260903233541 63 136 1.0 7.0 0.00 0.10 0.00 43 1003.4
20260903233446 63 136 2.0 7.0 0.00 0.10 0.00 44 1003.4
20260903233343 63 136 2.0 7.0 0.00 0.10 0.00 44 1003.4
20260903233252 63 136 2.0 7.0 0.00 0.10 0.00 45 1003.4
20260903233220 63 136 1.0 7.0 0.00 0.10 0.00 48 1003.4
20260903233055 63 136 2.0 7.0 0.00 0.10 0.00 47 1003.4
20260903232952 63 136 3.0 7.0 0.00 0.10 0.00 46 1003.4
20260903232858 63 136 3.0 7.0 0.00 0.10 0.00 46 1003.5
20260903232755 63 140 3.0 7.0 0.00 0.10 0.00 46 1003.6
20260903232702 63 142 2.0 7.0 0.00 0.10 0.00 44 1003.6
20260903232602 63 142 2.0 7.0 0.00 0.10 0.00 45 1003.6
20260903232446 63 142 3.0 7.0 0.00 0.10 0.00 45 1003.6
20260903232342 63 143 3.0 7.0 0.00 0.10 0.00 46 1003.6
20260903232247 63 143 2.0 7.0 0.00 0.10 0.00 46 1003.6
20260903232147 63 111 1.0 6.0 0.00 0.10 0.00 47 1003.6
20260903232111 63 111 1.0 6.0 0.00 0.10 0.00 45 1003.6
20260903231947 63 111 1.0 6.0 0.00 0.10 0.00 44 1003.7
20260903231851 63 111 1.0 6.0 0.00 0.10 0.00 44 1003.6
20260903231801 63 111 2.0 6.0 0.00 0.10 0.00 44 1003.7
20260903231659 63 111 3.0 7.0 0.00 0.10 0.00 44 1003.7
20260903231604 63 111 3.0 7.0 0.00 0.10 0.00 44 1003.7
20260903231440 63 111 3.0 7.0 0.00 0.10 0.00 45 1003.7
20260903231348 63 111 3.0 7.0 0.00 0.10 0.00 45 1003.7
20260903231245 63 111 3.0 7.0 0.00 0.10 0.00 45 1003.7
20260903231144 63 111 3.0 7.0 0.00 0.10 0.00 46 1003.7
20260903231113 63 112 3.0 7.0 0.00 0.10 0.00 47 1003.7
20260903230959 63 113 3.0 7.0 0.00 0.10 0.00 47 1003.8
20260903230916 63 113 4.0 7.0 0.00 0.10 0.00 48 1003.7
20260903230742 63 82 3.0 6.0 0.00 0.10 0.00 47 1003.7
20260903230640 63 84 3.0 6.0 0.00 0.10 0.00 47 1003.7
20260903230607 63 84 3.0 6.0 0.00 0.10 0.00 47 1003.7
20260903230444 63 81 3.0 6.0 0.00 0.10 0.00 47 1003.7
20260903230353 62 81 3.0 6.0 0.00 0.10 0.00 47 1003.7
20260903230300 62 81 2.0 6.0 0.00 0.10 0.00 47 1003.8
20260903230154 62 81 3.0 9.0 0.00 0.10 0.00 47 1003.8
20260903230049 62 38 3.0 9.0 0.00 0.10 0.00 46 1003.8
20260903225946 62 37 3.0 9.0 0.00 0.10 0.00 46 1003.8
20260903225852 62 38 2.0 9.0 0.00 0.10 0.00 47 1003.8
20260903225820 62 38 2.0 9.0 0.00 0.10 0.00 47 1003.9
20260903225641 62 38 2.0 9.0 0.00 0.10 0.00 46 1003.9
20260903225557 62 40 2.0 9.0 0.00 0.10 0.00 46 1003.9
20260903225444 62 40 4.0 9.0 0.00 0.10 0.00 47 1003.8
20260903225340 62 40 4.0 9.0 0.00 0.10 0.00 46 1003.9
20260903225307 62 40 4.0 9.0 0.00 0.10 0.00 46 1003.9
20260903225205 62 42 2.0 6.0 0.00 0.10 0.00 47 1003.9
20260903225049 62 44 1.0 6.0 0.00 0.10 0.00 47 1004.0